DL9BGG-13 Weather Reports


Display with metric or nautical units.
time (UTC)temp
F
wind
direction
speed
MPH
gust
MPH
rain 1hr
in
rain 24hr
in
rain mn
in
humidity
%
barometer
mb
20260508124820 62 112 11.0 0.0 0.00 0.00 0.00 49 1064.9
20260508124714 62 67 12.0 0.0 0.00 0.00 0.00 49 1064.9
20260508124601 62 45 12.0 0.0 0.00 0.00 0.00 48 1065.0
20260508124448 62 112 9.0 0.0 0.00 0.00 0.00 48 1065.1
20260508124337 62 90 12.0 0.0 0.00 0.00 0.00 48 1065.1
20260508124231 63 45 6.0 0.0 0.00 0.00 0.00 47 1065.1
20260508124117 63 135 11.0 0.0 0.00 0.00 0.00 48 1065.1
20260508124011 63 112 0.0 0.0 0.00 0.00 0.00 48 1065.1
20260508123851 63 90 14.0 0.0 0.00 0.00 0.00 47 1065.1
20260508123738 64 135 7.0 0.0 0.00 0.00 0.00 46 1065.2
20260508123631 64 135 11.0 0.0 0.00 0.00 0.00 43 1065.1
20260508123520 64 135 7.0 0.0 0.00 0.00 0.00 43 1065.1
20260508123357 64 135 11.0 0.0 0.00 0.00 0.00 45 1064.9
20260508123245 65 22 9.0 0.0 0.00 0.00 0.00 43 1064.9
20260508123132 65 45 0.0 0.0 0.00 0.00 0.00 42 1065.0
20260508123019 65 90 0.0 0.0 0.00 0.00 0.00 40 1065.1
20260508122914 65 112 0.0 0.0 0.00 0.00 0.00 38 1065.1
20260508122801 65 90 10.0 0.0 0.00 0.00 0.00 37 1065.0
20260508122649 65 112 4.0 0.0 0.00 0.00 0.00 38 1065.0
20260508122538 66 112 5.0 0.0 0.00 0.00 0.00 40 1065.1
20260508122422 66 112 0.0 0.0 0.00 0.00 0.00 42 1065.0
20260508122317 66 90 0.0 0.0 0.00 0.00 0.00 41 1065.1
20260508122205 66 112 8.0 0.0 0.00 0.00 0.00 37 1065.2
20260508122051 66 112 12.0 0.0 0.00 0.00 0.00 35 1065.1
20260508121946 66 112 4.0 0.0 0.00 0.00 0.00 34 1065.1
20260508121833 67 135 10.0 0.0 0.00 0.00 0.00 34 1064.9
20260508121728 67 112 12.0 0.0 0.00 0.00 0.00 33 1065.0
20260508121622 67 67 9.0 0.0 0.00 0.00 0.00 33 1065.0
20260508121501 67 45 4.0 0.0 0.00 0.00 0.00 34 1065.0
20260508121341 67 22 6.0 0.0 0.00 0.00 0.00 33 1065.0
20260508121227 67 45 7.0 0.0 0.00 0.00 0.00 33 1065.0
20260508121115 68 112 13.0 0.0 0.00 0.00 0.00 33 1065.1
20260508121002 68 90 5.0 0.0 0.00 0.00 0.00 33 1065.1
20260508120848 68 112 11.0 0.0 0.00 0.00 0.00 33 1065.1
20260508120728 68 45 7.0 0.0 0.00 0.00 0.00 34 1065.1
20260508120625 68 112 1.0 0.0 0.00 0.00 0.00 33 1065.1
20260508120517 68 112 6.0 0.0 0.00 0.00 0.00 32 1065.1
20260508120355 68 135 11.0 0.0 0.00 0.00 0.00 33 1065.1
20260508120236 178 112 7.0 0.0 0.00 0.00 0.00 11 1065.1
20260508120130 178 112 13.0 0.0 0.00 0.00 0.00 11 1065.1
20260508120011 68 112 6.0 0.0 0.00 0.00 0.00 32 1065.1
20260508115905 68 135 8.0 0.0 0.00 0.00 0.00 33 1065.1
20260508115744 68 135 7.0 0.0 0.00 0.00 0.00 33 1065.1
20260508115621 68 135 4.0 0.0 0.00 0.00 0.00 34 1065.1
20260508115501 68 90 0.0 0.0 0.00 0.00 0.00 34 1065.1
20260508115349 68 135 11.0 0.0 0.00 0.00 0.00 33 1065.1
20260508115236 67 135 13.0 0.0 0.00 0.00 0.00 34 1065.1
20260508115125 67 157 9.0 0.0 0.00 0.00 0.00 35 1065.0
20260508115019 67 112 0.0 0.0 0.00 0.00 0.00 35 1065.0
20260508114907 67 45 0.0 0.0 0.00 0.00 0.00 34 1065.1
20260508114800 67 90 0.0 0.0 0.00 0.00 0.00 35 1065.1
20260508114637 67 112 0.0 0.0 0.00 0.00 0.00 34 1065.1
20260508114517 67 157 13.0 0.0 0.00 0.00 0.00 33 1065.2
20260508114403 68 157 14.0 0.0 0.00 0.00 0.00 33 1065.1
20260508114251 68 112 7.0 0.0 0.00 0.00 0.00 33 1065.1
20260508114146 68 135 9.0 0.0 0.00 0.00 0.00 33 1065.2
20260508114026 68 90 9.0 0.0 0.00 0.00 0.00 33 1065.1
20260508113853 68 135 6.0 0.0 0.00 0.00 0.00 34 1065.0
20260508113730 68 22 0.0 0.0 0.00 0.00 0.00 34 1065.1
20260508113616 68 135 11.0 0.0 0.00 0.00 0.00 34 1065.2
20260508113444 68 157 0.0 0.0 0.00 0.00 0.00 34 1065.2
20260508113315 68 135 0.0 0.0 0.00 0.00 0.00 33 1065.3
20260508113156 68 67 8.0 0.0 0.00 0.00 0.00 34 1065.4
20260508113051 68 112 6.0 0.0 0.00 0.00 0.00 34 1065.3
20260508112945 68 112 6.0 0.0 0.00 0.00 0.00 34 1065.2
20260508112817 68 135 7.0 0.0 0.00 0.00 0.00 33 1065.2
20260508112712 68 112 5.0 0.0 0.00 0.00 0.00 34 1065.3
20260508112551 67 157 7.0 0.0 0.00 0.00 0.00 35 1065.3
20260508112430 67 112 2.0 0.0 0.00 0.00 0.00 34 1065.3
20260508112325 67 135 4.0 0.0 0.00 0.00 0.00 35 1065.3
20260508112212 67 67 4.0 0.0 0.00 0.00 0.00 35 1065.3
20260508112100 67 135 6.0 0.0 0.00 0.00 0.00 35 1065.3
20260508111954 67 45 6.0 0.0 0.00 0.00 0.00 34 1065.4
20260508111832 66 90 6.0 0.0 0.00 0.00 0.00 35 1065.5
20260508111703 67 67 6.0 0.0 0.00 0.00 0.00 33 1065.4
20260508111549 67 67 7.0 0.0 0.00 0.00 0.00 34 1065.4
20260508111420 67 90 8.0 0.0 0.00 0.00 0.00 34 1065.5
20260508111301 67 112 10.0 0.0 0.00 0.00 0.00 34 1065.4
20260508111153 66 112 9.0 0.0 0.00 0.00 0.00 34 1065.4
20260508111033 67 135 6.0 0.0 0.00 0.00 0.00 33 1065.4
20260508110918 67 112 12.0 0.0 0.00 0.00 0.00 34 1065.4
20260508110749 67 112 6.0 0.0 0.00 0.00 0.00 33 1065.3
20260508110620 67 90 15.0 0.0 0.00 0.00 0.00 35 1065.3
20260508110451 67 90 7.0 0.0 0.00 0.00 0.00 35 1065.4
20260508110332 67 135 6.0 0.0 0.00 0.00 0.00 34 1065.4
20260508110227 67 90 7.0 0.0 0.00 0.00 0.00 34 1065.4
20260508110120 67 90 14.0 0.0 0.00 0.00 0.00 34 1065.4
20260508110007 67 135 7.0 0.0 0.00 0.00 0.00 33 1065.4
20260508105853 67 90 17.0 0.0 0.00 0.00 0.00 34 1065.4
20260508105734 67 45 6.0 0.0 0.00 0.00 0.00 35 1065.4
20260508105619 67 112 13.0 0.0 0.00 0.00 0.00 35 1065.4
20260508105450 66 135 9.0 0.0 0.00 0.00 0.00 36 1065.3
20260508105336 66 22 0.0 0.0 0.00 0.00 0.00 35 1065.3
20260508105218 66 112 7.0 0.0 0.00 0.00 0.00 34 1065.3
20260508105110 66 135 7.0 0.0 0.00 0.00 0.00 35 1065.3
20260508104949 66 135 13.0 0.0 0.00 0.00 0.00 35 1065.3
20260508104820 66 135 5.0 0.0 0.00 0.00 0.00 34 1065.4
20260508104707 66 135 6.0 0.0 0.00 0.00 0.00 35 1065.4
20260508104539 66 135 6.0 0.0 0.00 0.00 0.00 35 1065.4
20260508104424 66 135 8.0 0.0 0.00 0.00 0.00 34 1065.3
20260508104314 66 90 14.0 0.0 0.00 0.00 0.00 34 1065.3
20260508104207 66 135 9.0 0.0 0.00 0.00 0.00 34 1065.4
20260508104054 67 157 7.0 0.0 0.00 0.00 0.00 33 1065.3
20260508103933 67 135 10.0 0.0 0.00 0.00 0.00 35 1065.4
20260508103827 66 135 6.0 0.0 0.00 0.00 0.00 34 1065.3
20260508103700 67 112 0.0 0.0 0.00 0.00 0.00 33 1065.4
20260508103555 67 112 10.0 0.0 0.00 0.00 0.00 34 1065.3
20260508103448 67 112 0.0 0.0 0.00 0.00 0.00 35 1065.3
20260508103328 67 135 5.0 0.0 0.00 0.00 0.00 34 1065.3
20260508103214 67 135 9.0 0.0 0.00 0.00 0.00 35 1065.3
20260508103111 67 112 6.0 0.0 0.00 0.00 0.00 34 1065.3
20260508103005 67 90 11.0 0.0 0.00 0.00 0.00 34 1065.3
20260508102850 67 112 10.0 0.0 0.00 0.00 0.00 34 1065.3
20260508102737 66 135 8.0 0.0 0.00 0.00 0.00 34 1065.3
20260508102625 66 45 6.0 0.0 0.00 0.00 0.00 35 1065.4
20260508102518 66 135 15.0 0.0 0.00 0.00 0.00 34 1065.3
20260508102406 66 67 6.0 0.0 0.00 0.00 0.00 34 1065.3
20260508102253 66 135 8.0 0.0 0.00 0.00 0.00 35 1065.3
20260508102140 66 135 7.0 0.0 0.00 0.00 0.00 35 1065.4
20260508102035 66 45 6.0 0.0 0.00 0.00 0.00 35 1065.3
20260508101921 66 135 6.0 0.0 0.00 0.00 0.00 35 1065.4
20260508101801 66 112 9.0 0.0 0.00 0.00 0.00 36 1065.4
20260508101649 66 135 10.0 0.0 0.00 0.00 0.00 35 1065.3
20260508101533 66 180 11.0 0.0 0.00 0.00 0.00 35 1065.4
20260508101413 66 135 9.0 0.0 0.00 0.00 0.00 36 1065.4
20260508101259 66 90 5.0 0.0 0.00 0.00 0.00 36 1065.4
20260508101131 66 157 9.0 0.0 0.00 0.00 0.00 36 1065.4
20260508101019 66 112 9.0 0.0 0.00 0.00 0.00 35 1065.4
20260508100915 66 90 8.0 0.0 0.00 0.00 0.00 35 1065.4
20260508100755 66 112 4.0 0.0 0.00 0.00 0.00 35 1065.5
20260508100650 66 90 7.0 0.0 0.00 0.00 0.00 35 1065.4
20260508100538 65 135 11.0 0.0 0.00 0.00 0.00 35 1065.4
20260508100430 66 112 8.0 0.0 0.00 0.00 0.00 34 1065.4
20260508100318 66 157 12.0 0.0 0.00 0.00 0.00 34 1065.4
20260508100205 66 112 6.0 0.0 0.00 0.00 0.00 34 1065.4
20260508100054 66 135 13.0 0.0 0.00 0.00 0.00 35 1065.5
20260508095939 66 135 15.0 0.0 0.00 0.00 0.00 35 1065.4
20260508095826 66 135 12.0 0.0 0.00 0.00 0.00 36 1065.3
20260508095722 66 112 5.0 0.0 0.00 0.00 0.00 36 1065.4
20260508095617 66 135 6.0 0.0 0.00 0.00 0.00 36 1065.4
20260508095512 66 135 15.0 0.0 0.00 0.00 0.00 36 1065.4
20260508095407 66 157 9.0 0.0 0.00 0.00 0.00 36 1065.4
20260508095306 66 135 8.0 0.0 0.00 0.00 0.00 35 1065.4
20260508095150 66 135 5.0 0.0 0.00 0.00 0.00 35 1065.4
20260508095043 66 135 13.0 0.0 0.00 0.00 0.00 35 1065.5
20260508094923 66 135 14.0 0.0 0.00 0.00 0.00 35 1065.4
20260508094811 66 90 7.0 0.0 0.00 0.00 0.00 34 1065.4
20260508094706 66 157 15.0 0.0 0.00 0.00 0.00 35 1065.4
20260508094601 66 112 12.0 0.0 0.00 0.00 0.00 35 1065.3
20260508094449 66 135 0.0 0.0 0.00 0.00 0.00 35 1065.3
20260508094334 66 112 5.0 0.0 0.00 0.00 0.00 35 1065.4
20260508094212 66 112 11.0 0.0 0.00 0.00 0.00 35 1065.4
20260508094043 66 112 9.0 0.0 0.00 0.00 0.00 34 1065.6
20260508093930 67 135 6.0 0.0 0.00 0.00 0.00 35 1065.5
20260508093818 67 112 6.0 0.0 0.00 0.00 0.00 35 1065.5
20260508093712 67 112 12.0 0.0 0.00 0.00 0.00 34 1065.5
20260508093554 67 90 10.0 0.0 0.00 0.00 0.00 33 1065.6
20260508093448 67 112 6.0 0.0 0.00 0.00 0.00 35 1065.6
20260508093341 67 112 6.0 0.0 0.00 0.00 0.00 36 1065.6
20260508093228 67 67 7.0 0.0 0.00 0.00 0.00 36 1065.6
20260508093107 67 45 0.0 0.0 0.00 0.00 0.00 36 1065.6
20260508092946 67 90 6.0 0.0 0.00 0.00 0.00 36 1065.6
20260508092840 67 112 10.0 0.0 0.00 0.00 0.00 37 1065.6
20260508092720 67 112 0.0 0.0 0.00 0.00 0.00 36 1065.7
20260508092607 67 112 16.0 0.0 0.00 0.00 0.00 36 1065.6
20260508092454 67 90 12.0 0.0 0.00 0.00 0.00 37 1065.6
20260508092348 67 135 7.0 0.0 0.00 0.00 0.00 36 1065.7
20260508092235 67 135 2.0 0.0 0.00 0.00 0.00 36 1065.6
20260508092113 67 112 6.0 0.0 0.00 0.00 0.00 37 1065.6
20260508092001 67 90 6.0 0.0 0.00 0.00 0.00 38 1065.6
20260508091855 67 112 11.0 0.0 0.00 0.00 0.00 38 1065.6
20260508091743 67 157 11.0 0.0 0.00 0.00 0.00 38 1065.6
20260508091629 67 135 9.0 0.0 0.00 0.00 0.00 39 1065.6
20260508091509 68 157 9.0 0.0 0.00 0.00 0.00 38 1065.7
20260508091402 68 112 7.0 0.0 0.00 0.00 0.00 38 1065.6
20260508091243 68 135 7.0 0.0 0.00 0.00 0.00 39 1065.6
20260508091140 68 112 10.0 0.0 0.00 0.00 0.00 39 1065.6
20260508091032 68 112 6.0 0.0 0.00 0.00 0.00 41 1065.6
20260508090919 67 157 2.0 0.0 0.00 0.00 0.00 41 1065.6
20260508090805 67 157 0.0 0.0 0.00 0.00 0.00 41 1065.6
20260508090652 67 135 9.0 0.0 0.00 0.00 0.00 42 1065.6
20260508090533 67 90 6.0 0.0 0.00 0.00 0.00 43 1065.6
20260508090429 66 135 10.0 0.0 0.00 0.00 0.00 43 1065.6
20260508090321 66 112 6.0 0.0 0.00 0.00 0.00 43 1065.6
20260508090209 66 135 0.0 0.0 0.00 0.00 0.00 43 1065.6
20260508090055 65 157 0.0 0.0 0.00 0.00 0.00 42 1065.6
20260508085935 65 135 8.0 0.0 0.00 0.00 0.00 41 1065.7
20260508085821 65 90 4.0 0.0 0.00 0.00 0.00 43 1065.7
20260508085703 65 135 10.0 0.0 0.00 0.00 0.00 45 1065.7
20260508085555 65 112 8.0 0.0 0.00 0.00 0.00 46 1065.6
20260508085443 65 112 11.0 0.0 0.00 0.00 0.00 44 1065.6
20260508085321 65 135 7.0 0.0 0.00 0.00 0.00 44 1065.6
20260508085208 65 180 12.0 0.0 0.00 0.00 0.00 47 1065.6
20260508085057 65 157 6.0 0.0 0.00 0.00 0.00 46 1065.7
20260508084950 65 135 6.0 0.0 0.00 0.00 0.00 47 1065.7
20260508084837 65 157 5.0 0.0 0.00 0.00 0.00 47 1065.7
20260508084726 65 135 10.0 0.0 0.00 0.00 0.00 47 1065.7
20260508084621 65 90 9.0 0.0 0.00 0.00 0.00 47 1065.8
20260508084513 65 135 4.0 0.0 0.00 0.00 0.00 47 1065.7
20260508084354 65 112 5.0 0.0 0.00 0.00 0.00 46 1065.8
20260508084247 66 112 6.0 0.0 0.00 0.00 0.00 45 1065.7
20260508084134 66 90 12.0 0.0 0.00 0.00 0.00 45 1065.7
20260508084014 66 90 8.0 0.0 0.00 0.00 0.00 45 1065.8
20260508083859 66 90 9.0 0.0 0.00 0.00 0.00 45 1065.8
20260508083740 66 135 7.0 0.0 0.00 0.00 0.00 45 1065.8
20260508083625 66 135 4.0 0.0 0.00 0.00 0.00 45 1065.8
20260508083511 67 135 9.0 0.0 0.00 0.00 0.00 45 1065.8
20260508083351 67 135 8.0 0.0 0.00 0.00 0.00 46 1065.7
20260508083230 67 112 5.0 0.0 0.00 0.00 0.00 47 1065.8
20260508083124 67 90 0.0 0.0 0.00 0.00 0.00 47 1065.8
20260508083011 66 67 0.0 0.0 0.00 0.00 0.00 47 1065.8
20260508082850 66 22 5.0 0.0 0.00 0.00 0.00 47 1065.7
20260508082729 66 112 6.0 0.0 0.00 0.00 0.00 47 1065.8
20260508082619 67 112 8.0 0.0 0.00 0.00 0.00 47 1065.7
20260508082512 67 112 10.0 0.0 0.00 0.00 0.00 47 1065.7
20260508082400 66 90 5.0 0.0 0.00 0.00 0.00 47 1065.8
20260508082253 66 135 6.0 0.0 0.00 0.00 0.00 48 1065.8
20260508082131 66 112 6.0 0.0 0.00 0.00 0.00 48 1065.7
20260508082012 66 112 9.0 0.0 0.00 0.00 0.00 47 1065.7
20260508081857 66 135 12.0 0.0 0.00 0.00 0.00 48 1065.7
20260508081745 66 135 5.0 0.0 0.00 0.00 0.00 47 1065.7
20260508081631 66 157 9.0 0.0 0.00 0.00 0.00 48 1065.7
20260508081512 65 112 6.0 0.0 0.00 0.00 0.00 48 1065.7
20260508081405 65 135 5.0 0.0 0.00 0.00 0.00 48 1065.7
20260508081252 65 135 5.0 0.0 0.00 0.00 0.00 47 1065.7
20260508081138 65 180 9.0 0.0 0.00 0.00 0.00 47 1065.7
20260508081018 65 180 6.0 0.0 0.00 0.00 0.00 47 1065.7
20260508080913 66 135 9.0 0.0 0.00 0.00 0.00 46 1065.7
20260508080759 66 135 7.0 0.0 0.00 0.00 0.00 45 1065.7
20260508080640 66 157 6.0 0.0 0.00 0.00 0.00 45 1065.7
20260508080532 66 180 5.0 0.0 0.00 0.00 0.00 45 1065.6
20260508080411 66 135 7.0 0.0 0.00 0.00 0.00 45 1065.7
20260508080300 66 135 6.0 0.0 0.00 0.00 0.00 45 1065.7
20260508080154 66 157 11.0 0.0 0.00 0.00 0.00 45 1065.7
20260508080040 66 135 6.0 0.0 0.00 0.00 0.00 46 1065.7
20260508075920 66 135 4.0 0.0 0.00 0.00 0.00 46 1065.6
20260508075814 66 135 7.0 0.0 0.00 0.00 0.00 46 1065.7
20260508075710 66 135 5.0 0.0 0.00 0.00 0.00 46 1065.8
20260508075605 65 135 7.0 0.0 0.00 0.00 0.00 46 1065.7
20260508075454 65 135 10.0 0.0 0.00 0.00 0.00 46 1065.7
20260508075338 65 112 6.0 0.0 0.00 0.00 0.00 46 1065.7
20260508075217 65 157 6.0 0.0 0.00 0.00 0.00 46 1065.6
20260508075112 65 157 8.0 0.0 0.00 0.00 0.00 44 1065.7
20260508075007 65 157 5.0 0.0 0.00 0.00 0.00 46 1065.7
20260508074853 65 135 9.0 0.0 0.00 0.00 0.00 46 1065.6
20260508074742 65 135 9.0 0.0 0.00 0.00 0.00 47 1065.7
20260508074635 65 112 8.0 0.0 0.00 0.00 0.00 47 1065.7
20260508074523 65 112 9.0 0.0 0.00 0.00 0.00 49 1065.7
20260508074400 65 112 10.0 0.0 0.00 0.00 0.00 49 1065.7
20260508074240 65 135 3.0 0.0 0.00 0.00 0.00 49 1065.7
20260508074127 65 112 8.0 0.0 0.00 0.00 0.00 48 1065.6
20260508074008 65 112 10.0 0.0 0.00 0.00 0.00 49 1065.6
20260508073856 65 112 5.0 0.0 0.00 0.00 0.00 48 1065.7
20260508073738 65 135 10.0 0.0 0.00 0.00 0.00 48 1065.7
20260508073620 65 157 5.0 0.0 0.00 0.00 0.00 48 1065.6
20260508073515 65 157 10.0 0.0 0.00 0.00 0.00 47 1065.7
20260508073408 66 157 9.0 0.0 0.00 0.00 0.00 48 1065.7
20260508073255 66 157 4.0 0.0 0.00 0.00 0.00 47 1065.6
20260508073142 66 157 8.0 0.0 0.00 0.00 0.00 48 1065.6
20260508073030 66 135 5.0 0.0 0.00 0.00 0.00 48 1065.6
20260508072915 66 135 6.0 0.0 0.00 0.00 0.00 49 1065.6
20260508072802 66 112 5.0 0.0 0.00 0.00 0.00 50 1065.5
20260508072649 66 67 4.0 0.0 0.00 0.00 0.00 49 1065.5
20260508072543 66 135 7.0 0.0 0.00 0.00 0.00 48 1065.6
20260508072421 66 135 5.0 0.0 0.00 0.00 0.00 48 1065.5
20260508072309 67 135 10.0 0.0 0.00 0.00 0.00 47 1065.5
20260508072206 67 112 6.0 0.0 0.00 0.00 0.00 49 1065.5
20260508072057 67 135 3.0 0.0 0.00 0.00 0.00 51 1065.5
20260508071938 67 135 6.0 0.0 0.00 0.00 0.00 51 1065.5
20260508071833 67 112 6.0 0.0 0.00 0.00 0.00 49 1065.5
20260508071726 67 135 6.0 0.0 0.00 0.00 0.00 50 1065.6
20260508071614 67 135 4.0 0.0 0.00 0.00 0.00 51 1065.6
20260508071511 67 180 3.0 0.0 0.00 0.00 0.00 50 1065.6
20260508071405 67 135 4.0 0.0 0.00 0.00 0.00 50 1065.5
20260508071250 67 90 6.0 0.0 0.00 0.00 0.00 52 1065.5
20260508071138 67 135 0.0 0.0 0.00 0.00 0.00 51 1065.5
20260508071032 67 135 3.0 0.0 0.00 0.00 0.00 50 1065.5
20260508070919 67 135 6.0 0.0 0.00 0.00 0.00 50 1065.5
20260508070807 67 112 4.0 0.0 0.00 0.00 0.00 51 1065.5
20260508070702 67 135 0.0 0.0 0.00 0.00 0.00 51 1065.4
20260508070549 67 112 7.0 0.0 0.00 0.00 0.00 51 1065.5
20260508070443 67 112 3.0 0.0 0.00 0.00 0.00 52 1065.5
20260508070330 66 135 6.0 0.0 0.00 0.00 0.00 52 1065.4
20260508070218 66 157 3.0 0.0 0.00 0.00 0.00 52 1065.4
20260508070105 66 157 4.0 0.0 0.00 0.00 0.00 51 1065.4
20260508065950 66 135 6.0 0.0 0.00 0.00 0.00 51 1065.3
20260508065831 67 112 4.0 0.0 0.00 0.00 0.00 51 1065.3
20260508065716 67 135 7.0 0.0 0.00 0.00 0.00 52 1065.3
20260508065603 67 135 3.0 0.0 0.00 0.00 0.00 53 1065.4
20260508065441 66 135 2.0 0.0 0.00 0.00 0.00 53 1065.3
20260508065321 66 112 4.0 0.0 0.00 0.00 0.00 54 1065.3
20260508065208 66 112 2.0 0.0 0.00 0.00 0.00 54 1065.3
20260508065104 66 135 3.0 0.0 0.00 0.00 0.00 53 1065.1
20260508064958 66 135 5.0 0.0 0.00 0.00 0.00 54 1065.2
20260508064852 66 135 3.0 0.0 0.00 0.00 0.00 53 1065.3
20260508064723 66 135 6.0 0.0 0.00 0.00 0.00 52 1065.2
20260508064555 66 157 5.0 0.0 0.00 0.00 0.00 53 1065.2
20260508064449 66 135 3.0 0.0 0.00 0.00 0.00 55 1065.1
20260508064335 65 135 2.0 0.0 0.00 0.00 0.00 54 1065.2
20260508064214 66 112 4.0 0.0 0.00 0.00 0.00 54 1065.2
20260508064101 65 112 3.0 0.0 0.00 0.00 0.00 56 1065.1
20260508063939 65 135 0.0 0.0 0.00 0.00 0.00 57 1065.1
20260508063826 65 135 3.0 0.0 0.00 0.00 0.00 56 1065.1
20260508063708 64 135 3.0 0.0 0.00 0.00 0.00 56 1065.1
20260508063602 64 135 5.0 0.0 0.00 0.00 0.00 56 1065.1
20260508063458 64 135 4.0 0.0 0.00 0.00 0.00 57 1065.1
20260508063352 64 157 0.0 0.0 0.00 0.00 0.00 57 1065.1
20260508063245 64 157 0.0 0.0 0.00 0.00 0.00 57 1065.1
20260508063132 64 157 0.0 0.0 0.00 0.00 0.00 58 1065.1
20260508063027 64 157 0.0 0.0 0.00 0.00 0.00 59 1065.1
20260508062858 63 157 2.0 0.0 0.00 0.00 0.00 58 1065.1
20260508062745 63 157 3.0 0.0 0.00 0.00 0.00 59 1065.1
20260508062633 62 157 3.0 0.0 0.00 0.00 0.00 59 1065.1
20260508062511 62 157 2.0 0.0 0.00 0.00 0.00 59 1065.1
20260508062358 62 157 4.0 0.0 0.00 0.00 0.00 60 1065.2
20260508062252 62 157 3.0 0.0 0.00 0.00 0.00 59 1065.1
20260508062131 62 157 4.0 0.0 0.00 0.00 0.00 59 1065.1
20260508062010 62 157 4.0 0.0 0.00 0.00 0.00 59 1065.1
20260508061856 62 157 3.0 0.0 0.00 0.00 0.00 59 1065.1
20260508061746 62 157 4.0 0.0 0.00 0.00 0.00 59 1065.1
20260508061639 62 157 5.0 0.0 0.00 0.00 0.00 59 1065.1
20260508061534 62 157 2.0 0.0 0.00 0.00 0.00 59 1065.1
20260508061421 62 157 3.0 0.0 0.00 0.00 0.00 59 1065.1
20260508061259 62 157 2.0 0.0 0.00 0.00 0.00 59 1065.1
20260508061138 62 157 4.0 0.0 0.00 0.00 0.00 60 1065.1
20260508061009 62 157 2.0 0.0 0.00 0.00 0.00 60 1065.1
20260508060856 62 157 4.0 0.0 0.00 0.00 0.00 61 1065.1
20260508060743 62 157 0.0 0.0 0.00 0.00 0.00 62 1065.1
20260508060637 62 157 0.0 0.0 0.00 0.00 0.00 62 1065.1
20260508060517 62 157 2.0 0.0 0.00 0.00 0.00 60 1065.1
20260508060414 62 157 5.0 0.0 0.00 0.00 0.00 61 1065.1
20260508060306 62 157 5.0 0.0 0.00 0.00 0.00 62 1065.1
20260508060145 62 157 0.0 0.0 0.00 0.00 0.00 63 1065.1
20260508060026 62 157 0.0 0.0 0.00 0.00 0.00 64 1065.1
20260508055919 62 157 0.0 0.0 0.00 0.00 0.00 65 1065.1
20260508055805 62 157 0.0 0.0 0.00 0.00 0.00 67 1065.0
20260508055653 61 157 0.0 0.0 0.00 0.00 0.00 66 1065.1
20260508055548 61 157 0.0 0.0 0.00 0.00 0.00 67 1065.1
20260508055442 61 157 0.0 0.0 0.00 0.00 0.00 68 1065.0
20260508055321 61 157 0.0 0.0 0.00 0.00 0.00 70 1065.1
20260508055209 60 157 0.0 0.0 0.00 0.00 0.00 69 1065.0
20260508055103 60 157 0.0 0.0 0.00 0.00 0.00 71 1065.0
20260508054950 60 157 0.0 0.0 0.00 0.00 0.00 72 1065.1
20260508054829 60 157 0.0 0.0 0.00 0.00 0.00 72 1065.0
20260508054715 60 157 0.0 0.0 0.00 0.00 0.00 73 1065.0
20260508054602 59 157 0.0 0.0 0.00 0.00 0.00 73 1065.0
20260508054451 59 157 0.0 0.0 0.00 0.00 0.00 73 1065.0
20260508054344 60 157 0.0 0.0 0.00 0.00 0.00 73 1065.0
20260508054230 60 157 0.0 0.0 0.00 0.00 0.00 73 1065.0
20260508054112 60 157 0.0 0.0 0.00 0.00 0.00 75 1065.0
20260508054004 60 157 0.0 0.0 0.00 0.00 0.00 75 1065.0
20260508053835 61 157 0.0 0.0 0.00 0.00 0.00 76 1065.0
20260508053721 60 157 0.0 0.0 0.00 0.00 0.00 76 1065.0
20260508053601 60 157 0.0 0.0 0.00 0.00 0.00 76 1064.9
20260508053447 60 157 0.0 0.0 0.00 0.00 0.00 77 1064.9
20260508053335 60 157 0.0 0.0 0.00 0.00 0.00 77 1064.9
20260508053229 60 157 0.0 0.0 0.00 0.00 0.00 78 1065.0
20260508053108 60 157 0.0 0.0 0.00 0.00 0.00 78 1065.0
20260508052947 59 157 0.0 0.0 0.00 0.00 0.00 79 1064.9
20260508052841 59 157 0.0 0.0 0.00 0.00 0.00 79 1064.9
20260508052736 59 157 0.0 0.0 0.00 0.00 0.00 79 1064.8
20260508052631 58 157 0.0 0.0 0.00 0.00 0.00 80 1064.8
20260508052526 58 157 0.0 0.0 0.00 0.00 0.00 81 1064.8
20260508052413 57 157 0.0 0.0 0.00 0.00 0.00 81 1064.8
20260508052251 57 157 0.0 0.0 0.00 0.00 0.00 82 1064.8
20260508052123 56 157 0.0 0.0 0.00 0.00 0.00 83 1064.7
20260508052017 55 157 0.0 0.0 0.00 0.00 0.00 83 1064.7
20260508051904 55 157 0.0 0.0 0.00 0.00 0.00 84 1064.7
20260508051750 54 157 0.0 0.0 0.00 0.00 0.00 84 1064.7
20260508051645 54 157 0.0 0.0 0.00 0.00 0.00 84 1064.7
20260508051530 53 157 0.0 0.0 0.00 0.00 0.00 85 1064.7
20260508051401 53 157 0.0 0.0 0.00 0.00 0.00 85 1064.7
20260508051250 52 157 0.0 0.0 0.00 0.00 0.00 86 1064.7
20260508051143 51 157 0.0 0.0 0.00 0.00 0.00 86 1064.7
20260508051023 51 157 0.0 0.0 0.00 0.00 0.00 87 1064.7
20260508050917 50 157 0.0 0.0 0.00 0.00 0.00 87 1064.7
20260508050803 50 157 0.0 0.0 0.00 0.00 0.00 87 1064.7
20260508050658 50 157 0.0 0.0 0.00 0.00 0.00 87 1064.6
20260508050538 50 157 0.0 0.0 0.00 0.00 0.00 87 1064.6
20260508050426 50 157 0.0 0.0 0.00 0.00 0.00 87 1064.6
20260508050319 50 157 0.0 0.0 0.00 0.00 0.00 87 1064.6
20260508050214 50 157 0.0 0.0 0.00 0.00 0.00 87 1064.6
20260508050109 50 157 0.0 0.0 0.00 0.00 0.00 87 1064.6
20260508050003 50 157 0.0 0.0 0.00 0.00 0.00 87 1064.6
20260508045850 50 157 0.0 0.0 0.00 0.00 0.00 87 1064.5
20260508045743 51 157 0.0 0.0 0.00 0.00 0.00 87 1064.6
20260508045621 51 157 0.0 0.0 0.00 0.00 0.00 87 1064.6
20260508045509 51 157 0.0 0.0 0.00 0.00 0.00 86 1064.6
20260508045356 51 157 0.0 0.0 0.00 0.00 0.00 86 1064.5
20260508045250 52 157 0.0 0.0 0.00 0.00 0.00 86 1064.5
20260508045136 52 157 0.0 0.0 0.00 0.00 0.00 86 1064.5
20260508045024 51 157 0.0 0.0 0.00 0.00 0.00 87 1064.6
20260508044911 51 157 0.0 0.0 0.00 0.00 0.00 87 1064.4
20260508044757 51 157 0.0 0.0 0.00 0.00 0.00 87 1064.6
20260508044628 51 157 0.0 0.0 0.00 0.00 0.00 88 1064.5
20260508044507 51 157 0.0 0.0 0.00 0.00 0.00 88 1064.6
20260508044356 50 157 0.0 0.0 0.00 0.00 0.00 88 1064.5
20260508044247 50 157 0.0 0.0 0.00 0.00 0.00 88 1064.5
20260508044133 50 157 0.0 0.0 0.00 0.00 0.00 88 1064.6
20260508044019 50 157 0.0 0.0 0.00 0.00 0.00 88 1064.5
20260508043858 50 157 0.0 0.0 0.00 0.00 0.00 88 1064.5
20260508043737 50 157 0.0 0.0 0.00 0.00 0.00 88 1064.5
20260508043631 50 157 0.0 0.0 0.00 0.00 0.00 88 1064.5
20260508043526 49 157 0.0 0.0 0.00 0.00 0.00 89 1064.4
20260508043412 49 157 0.0 0.0 0.00 0.00 0.00 89 1064.4
20260508043249 48 157 0.0 0.0 0.00 0.00 0.00 89 1064.5
20260508043135 48 157 0.0 0.0 0.00 0.00 0.00 89 1064.4
20260508043029 48 157 0.0 0.0 0.00 0.00 0.00 89 1064.5
20260508042915 47 157 0.0 0.0 0.00 0.00 0.00 89 1064.5
20260508042755 47 157 0.0 0.0 0.00 0.00 0.00 90 1064.4
20260508042640 47 157 0.0 0.0 0.00 0.00 0.00 90 1064.4
20260508042527 46 157 0.0 0.0 0.00 0.00 0.00 90 1064.4
20260508042406 46 157 0.0 0.0 0.00 0.00 0.00 90 1064.5
20260508042244 46 157 0.0 0.0 0.00 0.00 0.00 90 1064.5
20260508042126 46 157 0.0 0.0 0.00 0.00 0.00 90 1064.4
20260508042018 45 157 0.0 0.0 0.00 0.00 0.00 90 1064.4
20260508041905 45 157 0.0 0.0 0.00 0.00 0.00 90 1064.4
20260508041738 45 157 0.0 0.0 0.00 0.00 0.00 90 1064.4
20260508041632 45 157 0.0 0.0 0.00 0.00 0.00 90 1064.4
20260508041528 45 157 0.0 0.0 0.00 0.00 0.00 90 1064.4
20260508041422 45 157 0.0 0.0 0.00 0.00 0.00 90 1064.4
20260508041319 45 157 0.0 0.0 0.00 0.00 0.00 90 1064.4
20260508041211 45 157 0.0 0.0 0.00 0.00 0.00 90 1064.4
20260508041049 45 157 0.0 0.0 0.00 0.00 0.00 90 1064.3
20260508040937 45 157 0.0 0.0 0.00 0.00 0.00 90 1064.3
20260508040823 45 157 0.0 0.0 0.00 0.00 0.00 90 1064.3
20260508040711 45 157 0.0 0.0 0.00 0.00 0.00 90 1064.4
20260508040606 45 157 0.0 0.0 0.00 0.00 0.00 90 1064.3
20260508040501 45 157 0.0 0.0 0.00 0.00 0.00 90 1064.4
20260508040347 45 157 0.0 0.0 0.00 0.00 0.00 90 1064.3
20260508040226 45 157 0.0 0.0 0.00 0.00 0.00 90 1064.3
20260508040113 45 157 0.0 0.0 0.00 0.00 0.00 90 1064.3
20260508040009 45 157 0.0 0.0 0.00 0.00 0.00 90 1064.4
20260508035855 45 157 0.0 0.0 0.00 0.00 0.00 90 1064.4
20260508035734 45 157 0.0 0.0 0.00 0.00 0.00 90 1064.4
20260508035631 45 157 0.0 0.0 0.00 0.00 0.00 90 1064.3
20260508035523 45 157 0.0 0.0 0.00 0.00 0.00 90 1064.4
20260508035402 45 157 0.0 0.0 0.00 0.00 0.00 90 1064.4
20260508035241 45 157 0.0 0.0 0.00 0.00 0.00 90 1064.3
20260508035128 45 157 0.0 0.0 0.00 0.00 0.00 90 1064.3
20260508035024 45 157 0.0 0.0 0.00 0.00 0.00 90 1064.4
20260508034918 46 157 0.0 0.0 0.00 0.00 0.00 90 1064.3
20260508034756 46 157 0.0 0.0 0.00 0.00 0.00 90 1064.3
20260508034636 46 157 0.0 0.0 0.00 0.00 0.00 90 1064.3
20260508034531 46 157 0.0 0.0 0.00 0.00 0.00 90 1064.3
20260508034425 46 157 0.0 0.0 0.00 0.00 0.00 90 1064.3
20260508034304 46 157 0.0 0.0 0.00 0.00 0.00 90 1064.3
20260508034151 46 157 0.0 0.0 0.00 0.00 0.00 90 1064.3
20260508034038 46 157 0.0 0.0 0.00 0.00 0.00 90 1064.3
20260508033932 46 157 0.0 0.0 0.00 0.00 0.00 90 1064.3
20260508033819 46 157 0.0 0.0 0.00 0.00 0.00 90 1064.3
20260508033658 46 157 0.0 0.0 0.00 0.00 0.00 90 1064.3
20260508033537 46 157 0.0 0.0 0.00 0.00 0.00 90 1064.3
20260508033417 46 157 0.0 0.0 0.00 0.00 0.00 90 1064.3
20260508033311 46 157 0.0 0.0 0.00 0.00 0.00 90 1064.3
20260508033158 46 157 0.0 0.0 0.00 0.00 0.00 90 1064.4
20260508033028 46 157 0.0 0.0 0.00 0.00 0.00 90 1064.3
20260508032916 46 157 0.0 0.0 0.00 0.00 0.00 90 1064.3
20260508032754 46 157 0.0 0.0 0.00 0.00 0.00 90 1064.3
20260508032642 46 157 0.0 0.0 0.00 0.00 0.00 90 1064.3
20260508032538 46 157 0.0 0.0 0.00 0.00 0.00 90 1064.3
20260508032431 45 157 0.0 0.0 0.00 0.00 0.00 90 1064.3
20260508032319 45 157 0.0 0.0 0.00 0.00 0.00 90 1064.3
20260508032213 45 157 0.0 0.0 0.00 0.00 0.00 90 1064.2
20260508032100 45 157 0.0 0.0 0.00 0.00 0.00 90 1064.2
20260508031947 45 157 0.0 0.0 0.00 0.00 0.00 90 1064.2
20260508031833 45 157 0.0 0.0 0.00 0.00 0.00 90 1064.3
20260508031721 45 157 0.0 0.0 0.00 0.00 0.00 90 1064.3
20260508031615 45 157 0.0 0.0 0.00 0.00 0.00 90 1064.3
20260508031503 45 157 0.0 0.0 0.00 0.00 0.00 90 1064.3
20260508031357 45 157 0.0 0.0 0.00 0.00 0.00 90 1064.2
20260508031244 45 157 0.0 0.0 0.00 0.00 0.00 90 1064.2
20260508031131 45 157 0.0 0.0 0.00 0.00 0.00 90 1064.2
20260508031018 45 157 0.0 0.0 0.00 0.00 0.00 90 1064.2
20260508030914 45 157 0.0 0.0 0.00 0.00 0.00 90 1064.2
20260508030808 45 157 0.0 0.0 0.00 0.00 0.00 90 1064.2
20260508030657 46 157 0.0 0.0 0.00 0.00 0.00 90 1064.2
20260508030550 46 157 0.0 0.0 0.00 0.00 0.00 90 1064.2
20260508030428 46 157 0.0 0.0 0.00 0.00 0.00 90 1064.2
20260508030307 46 157 0.0 0.0 0.00 0.00 0.00 90 1064.1
20260508030147 46 157 0.0 0.0 0.00 0.00 0.00 90 1064.2
20260508030041 46 157 0.0 0.0 0.00 0.00 0.00 90 1064.2
20260508025928 46 157 0.0 0.0 0.00 0.00 0.00 90 1064.1
20260508025815 46 157 0.0 0.0 0.00 0.00 0.00 90 1064.2
20260508025653 46 157 0.0 0.0 0.00 0.00 0.00 90 1064.2
20260508025541 46 157 0.0 0.0 0.00 0.00 0.00 90 1064.2
20260508025429 46 157 0.0 0.0 0.00 0.00 0.00 90 1064.3
20260508025323 46 157 0.0 0.0 0.00 0.00 0.00 90 1064.1
20260508025210 46 157 0.0 0.0 0.00 0.00 0.00 90 1064.2
20260508025104 46 157 0.0 0.0 0.00 0.00 0.00 90 1064.2
20260508024953 46 157 0.0 0.0 0.00 0.00 0.00 90 1064.1
20260508024846 46 157 0.0 0.0 0.00 0.00 0.00 90 1064.2
20260508024733 46 157 0.0 0.0 0.00 0.00 0.00 90 1064.2
20260508024628 46 157 0.0 0.0 0.00 0.00 0.00 90 1064.1
20260508024459 46 157 0.0 0.0 0.00 0.00 0.00 90 1064.1
20260508024346 46 157 0.0 0.0 0.00 0.00 0.00 90 1064.2
20260508024228 46 157 0.0 0.0 0.00 0.00 0.00 90 1064.0
20260508024113 46 157 0.0 0.0 0.00 0.00 0.00 90 1064.1
20260508024006 46 157 0.0 0.0 0.00 0.00 0.00 90 1064.1
20260508023853 46 157 0.0 0.0 0.00 0.00 0.00 90 1064.1
20260508023749 46 157 0.0 0.0 0.00 0.00 0.00 90 1064.0
20260508023643 46 157 0.0 0.0 0.00 0.00 0.00 90 1064.1
20260508023537 46 157 0.0 0.0 0.00 0.00 0.00 90 1064.0
20260508023416 46 157 0.0 0.0 0.00 0.00 0.00 90 1064.0
20260508023304 46 157 0.0 0.0 0.00 0.00 0.00 90 1064.1
20260508023150 46 157 0.0 0.0 0.00 0.00 0.00 90 1064.0
20260508023029 47 157 0.0 0.0 0.00 0.00 0.00 90 1064.0
20260508022909 47 157 0.0 0.0 0.00 0.00 0.00 90 1064.1
20260508022803 47 157 0.0 0.0 0.00 0.00 0.00 90 1064.0
20260508022652 47 157 0.0 0.0 0.00 0.00 0.00 90 1064.0
20260508022545 47 157 0.0 0.0 0.00 0.00 0.00 90 1064.0
20260508022432 47 157 0.0 0.0 0.00 0.00 0.00 90 1063.9
20260508022319 47 157 0.0 0.0 0.00 0.00 0.00 90 1064.0
20260508022206 47 157 0.0 0.0 0.00 0.00 0.00 90 1064.0
20260508022052 47 157 0.0 0.0 0.00 0.00 0.00 90 1063.9
20260508021939 47 157 0.0 0.0 0.00 0.00 0.00 90 1063.9
20260508021825 47 157 0.0 0.0 0.00 0.00 0.00 90 1063.9
20260508021713 47 157 0.0 0.0 0.00 0.00 0.00 90 1063.9
20260508021608 47 157 0.0 0.0 0.00 0.00 0.00 90 1063.9
20260508021447 47 157 0.0 0.0 0.00 0.00 0.00 90 1063.9
20260508021342 47 157 0.0 0.0 0.00 0.00 0.00 90 1064.0
20260508021220 47 157 0.0 0.0 0.00 0.00 0.00 90 1063.9
20260508021108 47 157 0.0 0.0 0.00 0.00 0.00 90 1063.9
20260508021003 47 157 0.0 0.0 0.00 0.00 0.00 90 1063.9
20260508020841 47 157 0.0 0.0 0.00 0.00 0.00 90 1064.0
20260508020728 47 157 0.0 0.0 0.00 0.00 0.00 90 1064.0
20260508020623 47 157 0.0 0.0 0.00 0.00 0.00 90 1064.0
20260508020510 47 157 0.0 0.0 0.00 0.00 0.00 90 1064.0
20260508020357 47 157 0.0 0.0 0.00 0.00 0.00 90 1064.0
20260508020244 47 157 0.0 0.0 0.00 0.00 0.00 90 1064.0
20260508020131 47 180 0.0 0.0 0.00 0.00 0.00 90 1064.0
20260508020017 47 180 0.0 0.0 0.00 0.00 0.00 90 1063.9
20260508015857 47 180 0.0 0.0 0.00 0.00 0.00 90 1063.9
20260508015751 47 180 0.0 0.0 0.00 0.00 0.00 90 1063.9
20260508015646 47 157 0.0 0.0 0.00 0.00 0.00 90 1063.9
20260508015533 47 157 0.0 0.0 0.00 0.00 0.00 90 1063.9
20260508015428 47 157 0.0 0.0 0.00 0.00 0.00 90 1063.9
20260508015300 47 157 0.0 0.0 0.00 0.00 0.00 90 1063.9
20260508015154 47 157 0.0 0.0 0.00 0.00 0.00 90 1063.9
20260508015041 47 157 0.0 0.0 0.00 0.00 0.00 90 1063.9
20260508014928 47 157 0.0 0.0 0.00 0.00 0.00 90 1063.9
20260508014814 47 157 0.0 0.0 0.00 0.00 0.00 90 1063.9
20260508014653 47 157 0.0 0.0 0.00 0.00 0.00 90 1063.9
20260508014532 47 157 0.0 0.0 0.00 0.00 0.00 90 1063.9
20260508014418 47 157 0.0 0.0 0.00 0.00 0.00 90 1063.9
20260508014306 47 157 0.0 0.0 0.00 0.00 0.00 90 1064.0
20260508014200 47 157 0.0 0.0 0.00 0.00 0.00 90 1064.0
20260508014047 47 157 0.0 0.0 0.00 0.00 0.00 90 1063.9
20260508013936 47 157 0.0 0.0 0.00 0.00 0.00 90 1063.9
20260508013829 47 157 0.0 0.0 0.00 0.00 0.00 90 1064.0
20260508013718 47 157 0.0 0.0 0.00 0.00 0.00 90 1063.9
20260508013611 47 157 0.0 0.0 0.00 0.00 0.00 90 1064.0
20260508013450 47 157 0.0 0.0 0.00 0.00 0.00 90 1063.9
20260508013345 47 157 0.0 0.0 0.00 0.00 0.00 90 1063.9
20260508013225 47 135 0.0 0.0 0.00 0.00 0.00 90 1063.9
20260508013119 47 135 0.0 0.0 0.00 0.00 0.00 90 1064.0
20260508013006 47 112 0.0 0.0 0.00 0.00 0.00 90 1063.9
20260508012901 47 112 0.0 0.0 0.00 0.00 0.00 90 1063.9
20260508012755 47 112 0.0 0.0 0.00 0.00 0.00 90 1063.9
20260508012642 47 112 0.0 0.0 0.00 0.00 0.00 90 1063.9
20260508012521 47 112 0.0 0.0 0.00 0.00 0.00 90 1063.9
20260508012408 47 112 0.0 0.0 0.00 0.00 0.00 90 1063.9
20260508012307 47 112 0.0 0.0 0.00 0.00 0.00 90 1063.9
20260508012142 47 112 0.0 0.0 0.00 0.00 0.00 90 1063.9
20260508012037 47 112 0.0 0.0 0.00 0.00 0.00 90 1063.9
20260508011923 47 112 0.0 0.0 0.00 0.00 0.00 90 1063.8
20260508011811 47 112 0.0 0.0 0.00 0.00 0.00 90 1063.9
20260508011707 47 112 0.0 0.0 0.00 0.00 0.00 90 1063.9
20260508011601 47 90 0.0 0.0 0.00 0.00 0.00 90 1063.8
20260508011456 47 90 0.0 0.0 0.00 0.00 0.00 90 1063.9
20260508011343 47 90 0.0 0.0 0.00 0.00 0.00 90 1063.8
20260508011237 47 90 0.0 0.0 0.00 0.00 0.00 90 1063.8
20260508011125 47 90 0.0 0.0 0.00 0.00 0.00 90 1063.8
20260508011019 47 90 0.0 0.0 0.00 0.00 0.00 90 1063.8
20260508010909 47 90 0.0 0.0 0.00 0.00 0.00 90 1063.8
20260508010803 47 90 0.0 0.0 0.00 0.00 0.00 90 1063.8
20260508010659 47 90 0.0 0.0 0.00 0.00 0.00 90 1063.8
20260508010551 47 90 0.0 0.0 0.00 0.00 0.00 90 1063.8
20260508010422 47 90 0.0 0.0 0.00 0.00 0.00 90 1063.8
20260508010307 47 90 0.0 0.0 0.00 0.00 0.00 90 1063.8
20260508005946 47 90 0.0 0.0 0.00 0.00 0.00 90 1063.8
20260508005840 47 90 0.0 0.0 0.00 0.00 0.00 90 1063.9
20260508005720 47 90 0.0 0.0 0.00 0.00 0.00 90 1063.8
20260508005558 47 90 0.0 0.0 0.00 0.00 0.00 90 1063.8
20260508005454 47 90 0.0 0.0 0.00 0.00 0.00 90 1063.8
20260508005349 47 90 0.0 0.0 0.00 0.00 0.00 90 1063.8
20260508005243 47 90 0.0 0.0 0.00 0.00 0.00 90 1063.8
20260508005130 47 90 0.0 0.0 0.00 0.00 0.00 90 1063.9
20260508005025 47 90 0.0 0.0 0.00 0.00 0.00 90 1063.8
20260508004914 47 90 0.0 0.0 0.00 0.00 0.00 90 1063.8
20260508004806 47 90 0.0 0.0 0.00 0.00 0.00 90 1063.9
20260508004637 47 90 0.0 0.0 0.00 0.00 0.00 90 1063.9
20260508004524 47 90 0.0 0.0 0.00 0.00 0.00 90 1063.8
20260508004411 47 90 0.0 0.0 0.00 0.00 0.00 90 1063.9
20260508004301 47 90 0.0 0.0 0.00 0.00 0.00 90 1063.9
20260508004153 47 90 0.0 0.0 0.00 0.00 0.00 90 1063.8
20260508004048 47 90 0.0 0.0 0.00 0.00 0.00 90 1063.9
20260508003935 47 90 0.0 0.0 0.00 0.00 0.00 90 1063.8
20260508003813 47 90 0.0 0.0 0.00 0.00 0.00 90 1063.9
20260508003701 47 90 0.0 0.0 0.00 0.00 0.00 90 1063.8
20260508003555 47 90 0.0 0.0 0.00 0.00 0.00 90 1063.9
20260508003418 47 90 0.0 0.0 0.00 0.00 0.00 90 1063.8
20260508003251 47 90 0.0 0.0 0.00 0.00 0.00 90 1063.8
20260508003144 47 90 0.0 0.0 0.00 0.00 0.00 90 1063.9
20260508003030 47 90 0.0 0.0 0.00 0.00 0.00 90 1063.8
20260508002909 47 90 0.0 0.0 0.00 0.00 0.00 90 1063.9
20260508002742 47 90 0.0 0.0 0.00 0.00 0.00 90 1063.8
20260508002634 47 90 0.0 0.0 0.00 0.00 0.00 89 1063.8
20260508002520 47 67 0.0 0.0 0.00 0.00 0.00 89 1063.9
20260508002406 47 67 0.0 0.0 0.00 0.00 0.00 89 1063.9
20260508002300 46 67 0.0 0.0 0.00 0.00 0.00 89 1063.8
20260508002145 46 67 0.0 0.0 0.00 0.00 0.00 89 1063.8
20260508002023 46 45 0.0 0.0 0.00 0.00 0.00 89 1063.8
20260508001903 46 45 0.0 0.0 0.00 0.00 0.00 89 1063.8
20260508001757 46 45 0.0 0.0 0.00 0.00 0.00 89 1063.9
20260508001644 46 45 0.0 0.0 0.00 0.00 0.00 89 1063.8
20260508001530 46 45 0.0 0.0 0.00 0.00 0.00 89 1063.8
20260508001409 46 45 0.0 0.0 0.00 0.00 0.00 89 1063.8
20260508001304 46 45 0.0 0.0 0.00 0.00 0.00 89 1063.8
20260508001150 46 45 0.0 0.0 0.00 0.00 0.00 89 1063.8
20260508001030 46 45 0.0 0.0 0.00 0.00 0.00 89 1063.8
20260508000916 46 45 0.0 0.0 0.00 0.00 0.00 89 1063.7
20260508000755 46 45 0.0 0.0 0.00 0.00 0.00 89 1063.8
20260508000633 46 45 0.0 0.0 0.00 0.00 0.00 89 1063.8
20260508000528 46 45 0.0 0.0 0.00 0.00 0.00 89 1063.8
20260508000421 46 45 0.0 0.0 0.00 0.00 0.00 89 1063.9
20260508000308 46 45 0.0 0.0 0.00 0.00 0.00 88 1063.9
20260508000147 46 45 0.0 0.0 0.00 0.00 0.00 88 1063.8
20260508000033 46 45 0.0 0.0 0.00 0.00 0.00 88 1063.8
20260507235927 46 45 0.0 0.0 0.00 0.00 0.00 88 1063.8
20260507235821 46 45 0.0 0.0 0.00 0.00 0.00 88 1063.8
20260507235700 46 45 0.0 0.0 0.00 0.00 0.00 88 1063.9
20260507235544 46 45 0.0 0.0 0.00 0.00 0.00 88 1063.9
20260507235431 46 45 0.0 0.0 0.00 0.00 0.00 88 1063.8
20260507235316 45 45 0.0 0.0 0.00 0.00 0.00 88 1063.8
20260507235203 45 45 0.0 0.0 0.00 0.00 0.00 88 1063.8
20260507235041 45 45 0.0 0.0 0.00 0.00 0.00 88 1063.8
20260507234920 45 45 0.0 0.0 0.00 0.00 0.00 88 1063.8
20260507234758 45 45 0.0 0.0 0.00 0.00 0.00 88 1063.8
20260507234628 45 45 0.0 0.0 0.00 0.00 0.00 88 1063.8
20260507234507 45 45 0.0 0.0 0.00 0.00 0.00 88 1063.8
20260507234337 45 45 0.0 0.0 0.00 0.00 0.00 88 1063.8
20260507234208 45 45 0.0 0.0 0.00 0.00 0.00 88 1063.9
20260507234054 45 45 0.0 0.0 0.00 0.00 0.00 88 1063.8
20260507233950 44 45 0.0 0.0 0.00 0.00 0.00 88 1063.8
20260507233843 45 45 0.0 0.0 0.00 0.00 0.00 88 1063.8
20260507233738 45 45 0.0 0.0 0.00 0.00 0.00 88 1063.8
20260507233630 44 45 0.0 0.0 0.00 0.00 0.00 88 1063.8
20260507233501 45 45 0.0 0.0 0.00 0.00 0.00 88 1063.7
20260507233347 45 45 0.0 0.0 0.00 0.00 0.00 88 1063.9
20260507233218 45 45 0.0 0.0 0.00 0.00 0.00 88 1063.8
20260507233111 45 45 0.0 0.0 0.00 0.00 0.00 88 1063.9
20260507232941 45 45 0.0 0.0 0.00 0.00 0.00 88 1063.9
20260507232820 45 45 0.0 0.0 0.00 0.00 0.00 88 1063.8
20260507232646 45 45 0.0 0.0 0.00 0.00 0.00 88 1063.8
20260507232538 45 45 0.0 0.0 0.00 0.00 0.00 87 1063.8
20260507232433 45 45 0.0 0.0 0.00 0.00 0.00 87 1063.8
20260507232319 45 45 0.0 0.0 0.00 0.00 0.00 87 1063.8
20260507232159 45 45 0.0 0.0 0.00 0.00 0.00 87 1063.8
20260507232045 45 45 0.0 0.0 0.00 0.00 0.00 87 1063.8
20260507231918 45 45 0.0 0.0 0.00 0.00 0.00 87 1063.8
20260507231811 45 45 0.0 0.0 0.00 0.00 0.00 87 1063.7
20260507231634 46 45 0.0 0.0 0.00 0.00 0.00 87 1063.7
20260507231520 46 45 0.0 0.0 0.00 0.00 0.00 87 1063.7
20260507231407 46 45 0.0 0.0 0.00 0.00 0.00 87 1063.7
20260507231238 46 45 0.0 0.0 0.00 0.00 0.00 87 1063.7
20260507231116 46 45 0.0 0.0 0.00 0.00 0.00 87 1063.7
20260507230956 46 45 0.0 0.0 0.00 0.00 0.00 87 1063.8
20260507230842 46 45 0.0 0.0 0.00 0.00 0.00 87 1063.7
20260507230721 46 45 0.0 0.0 0.00 0.00 0.00 87 1063.7
20260507230608 46 45 0.0 0.0 0.00 0.00 0.00 87 1063.7
20260507230441 46 45 0.0 0.0 0.00 0.00 0.00 87 1063.7
20260507230335 46 45 0.0 0.0 0.00 0.00 0.00 87 1063.7
20260507230229 46 45 0.0 0.0 0.00 0.00 0.00 87 1063.6
20260507230115 46 45 0.0 0.0 0.00 0.00 0.00 87 1063.7
20260507225946 46 45 0.0 0.0 0.00 0.00 0.00 87 1063.7
20260507225827 46 45 0.0 0.0 0.00 0.00 0.00 87 1063.7
20260507225720 47 45 0.0 0.0 0.00 0.00 0.00 87 1063.6
20260507225558 47 45 0.0 0.0 0.00 0.00 0.00 87 1063.7
20260507225446 47 45 0.0 0.0 0.00 0.00 0.00 87 1063.7
20260507225340 47 45 0.0 0.0 0.00 0.00 0.00 87 1063.6
20260507225219 47 45 0.0 0.0 0.00 0.00 0.00 86 1063.7
20260507225106 47 45 0.0 0.0 0.00 0.00 0.00 86 1063.7
20260507224954 47 45 0.0 0.0 0.00 0.00 0.00 86 1063.6
20260507224847 47 45 0.0 0.0 0.00 0.00 0.00 86 1063.7
20260507224729 47 45 0.0 0.0 0.00 0.00 0.00 86 1063.7
20260507224622 47 45 0.0 0.0 0.00 0.00 0.00 86 1063.7
20260507224511 47 45 0.0 0.0 0.00 0.00 0.00 86 1063.8
20260507224403 48 45 0.0 0.0 0.00 0.00 0.00 86 1063.6
20260507224250 48 45 0.0 0.0 0.00 0.00 0.00 86 1063.7
20260507224121 48 45 0.0 0.0 0.00 0.00 0.00 86 1063.7
20260507224007 48 45 0.0 0.0 0.00 0.00 0.00 86 1063.7
20260507223840 48 45 0.0 0.0 0.00 0.00 0.00 86 1063.8
20260507223733 48 45 0.0 0.0 0.00 0.00 0.00 86 1063.7
20260507223620 48 45 0.0 0.0 0.00 0.00 0.00 86 1063.8
20260507223501 48 45 0.0 0.0 0.00 0.00 0.00 86 1063.8
20260507223338 48 45 0.0 0.0 0.00 0.00 0.00 86 1063.8
20260507223217 48 45 0.0 0.0 0.00 0.00 0.00 86 1063.8
20260507223106 48 45 0.0 0.0 0.00 0.00 0.00 86 1063.8
20260507222959 48 45 0.0 0.0 0.00 0.00 0.00 86 1063.7
20260507222846 48 45 0.0 0.0 0.00 0.00 0.00 86 1063.8
20260507222740 49 45 0.0 0.0 0.00 0.00 0.00 86 1063.8
20260507222611 49 45 0.0 0.0 0.00 0.00 0.00 86 1063.8
20260507222452 49 45 0.0 0.0 0.00 0.00 0.00 86 1063.8
20260507222344 49 45 0.0 0.0 0.00 0.00 0.00 86 1063.7
20260507222223 49 22 0.0 0.0 0.00 0.00 0.00 86 1063.7
20260507222110 49 22 0.0 0.0 0.00 0.00 0.00 86 1063.7
20260507221949 49 22 0.0 0.0 0.00 0.00 0.00 86 1063.7
20260507221843 49 45 0.0 0.0 0.00 0.00 0.00 86 1063.7
20260507221729 49 45 0.0 0.0 0.00 0.00 0.00 86 1063.7
20260507221615 49 45 0.0 0.0 0.00 0.00 0.00 86 1063.6
20260507221503 49 45 0.0 0.0 0.00 0.00 0.00 86 1063.7
20260507221342 49 45 0.0 0.0 0.00 0.00 0.00 86 1063.6
20260507221229 49 67 5.0 0.0 0.00 0.00 0.00 86 1063.8
20260507221107 49 45 0.0 0.0 0.00 0.00 0.00 86 1063.7
20260507220947 49 45 0.0 0.0 0.00 0.00 0.00 86 1063.6
20260507220833 49 45 0.0 0.0 0.00 0.00 0.00 86 1063.6
20260507220713 49 45 0.0 0.0 0.00 0.00 0.00 86 1063.7
20260507220600 49 45 0.0 0.0 0.00 0.00 0.00 86 1063.7
20260507220454 49 45 0.0 0.0 0.00 0.00 0.00 86 1063.7
20260507220350 49 22 3.0 0.0 0.00 0.00 0.00 86 1063.7
20260507220243 49 45 0.0 0.0 0.00 0.00 0.00 86 1063.7
20260507220115 49 45 0.0 0.0 0.00 0.00 0.00 86 1063.8
20260507220002 49 45 0.0 0.0 0.00 0.00 0.00 86 1063.8
20260507215849 49 45 0.0 0.0 0.00 0.00 0.00 86 1063.6
20260507215743 49 67 6.0 0.0 0.00 0.00 0.00 86 1063.6
20260507215622 49 45 3.0 0.0 0.00 0.00 0.00 86 1063.7
20260507215509 49 45 0.0 0.0 0.00 0.00 0.00 86 1063.6
20260507215404 49 45 0.0 0.0 0.00 0.00 0.00 86 1063.6
20260507215237 49 45 0.0 0.0 0.00 0.00 0.00 86 1063.7
20260507215129 49 45 0.0 0.0 0.00 0.00 0.00 86 1063.6
20260507215017 49 22 0.0 0.0 0.00 0.00 0.00 86 1063.6
20260507214911 49 45 0.0 0.0 0.00 0.00 0.00 86 1063.5
20260507214752 49 45 0.0 0.0 0.00 0.00 0.00 86 1063.6
20260507214637 49 45 0.0 0.0 0.00 0.00 0.00 86 1063.5
20260507214515 49 45 0.0 0.0 0.00 0.00 0.00 86 1063.6
20260507214354 49 45 0.0 0.0 0.00 0.00 0.00 86 1063.5
20260507214242 49 45 0.0 0.0 0.00 0.00 0.00 86 1063.5
20260507214136 49 45 6.0 0.0 0.00 0.00 0.00 86 1063.6
20260507214024 49 45 5.0 0.0 0.00 0.00 0.00 86 1063.6
20260507213913 49 45 0.0 0.0 0.00 0.00 0.00 85 1063.6
20260507213806 49 45 0.0 0.0 0.00 0.00 0.00 85 1063.6
20260507213652 49 45 0.0 0.0 0.00 0.00 0.00 85 1063.6
20260507213539 49 45 4.0 0.0 0.00 0.00 0.00 85 1063.7
20260507213425 49 22 0.0 0.0 0.00 0.00 0.00 85 1063.6
20260507213256 49 45 0.0 0.0 0.00 0.00 0.00 85 1063.6
20260507213135 49 45 0.0 0.0 0.00 0.00 0.00 85 1063.6
20260507213015 49 45 5.0 0.0 0.00 0.00 0.00 85 1063.6
20260507212909 49 45 0.0 0.0 0.00 0.00 0.00 85 1063.6
20260507212804 49 45 5.0 0.0 0.00 0.00 0.00 85 1063.6
20260507212650 49 45 0.0 0.0 0.00 0.00 0.00 85 1063.6
20260507212530 49 45 3.0 0.0 0.00 0.00 0.00 85 1063.6
20260507212417 49 90 4.0 0.0 0.00 0.00 0.00 85 1063.6
20260507212312 49 45 2.0 0.0 0.00 0.00 0.00 85 1063.6
20260507212150 50 22 0.0 0.0 0.00 0.00 0.00 84 1063.6
20260507212029 50 67 0.0 0.0 0.00 0.00 0.00 84 1063.6
20260507211923 50 45 4.0 0.0 0.00 0.00 0.00 84 1063.5
20260507211817 50 45 4.0 0.0 0.00 0.00 0.00 84 1063.6
20260507211712 50 45 0.0 0.0 0.00 0.00 0.00 84 1063.6
20260507211605 50 45 6.0 0.0 0.00 0.00 0.00 83 1063.6
20260507211450 50 45 0.0 0.0 0.00 0.00 0.00 83 1063.5
20260507211328 50 45 0.0 0.0 0.00 0.00 0.00 83 1063.5
20260507211213 50 67 0.0 0.0 0.00 0.00 0.00 83 1063.6
20260507211043 50 45 0.0 0.0 0.00 0.00 0.00 83 1063.6
20260507210921 50 45 4.0 0.0 0.00 0.00 0.00 83 1063.6
20260507210800 50 90 0.0 0.0 0.00 0.00 0.00 83 1063.6
20260507210646 50 90 4.0 0.0 0.00 0.00 0.00 83 1063.6
20260507210539 50 67 3.0 0.0 0.00 0.00 0.00 83 1063.6
20260507210426 50 90 0.0 0.0 0.00 0.00 0.00 83 1063.5
20260507210313 50 45 6.0 0.0 0.00 0.00 0.00 83 1063.6
20260507210207 50 67 0.0 0.0 0.00 0.00 0.00 83 1063.5
20260507210101 50 67 5.0 0.0 0.00 0.00 0.00 83 1063.5
20260507205947 50 67 4.0 0.0 0.00 0.00 0.00 82 1063.6
20260507205834 50 90 4.0 0.0 0.00 0.00 0.00 82 1063.5
20260507205728 50 45 0.0 0.0 0.00 0.00 0.00 82 1063.5
20260507205623 50 90 5.0 0.0 0.00 0.00 0.00 82 1063.6
20260507205502 50 90 7.0 0.0 0.00 0.00 0.00 82 1063.5
20260507205341 50 67 4.0 0.0 0.00 0.00 0.00 82 1063.5
20260507205229 50 90 1.0 0.0 0.00 0.00 0.00 82 1063.5
20260507205121 50 45 3.0 0.0 0.00 0.00 0.00 82 1063.5
20260507205003 50 67 0.0 0.0 0.00 0.00 0.00 82 1063.5
20260507204857 50 67 5.0 0.0 0.00 0.00 0.00 82 1063.5
20260507204750 50 90 5.0 0.0 0.00 0.00 0.00 82 1063.5
20260507204637 50 90 3.0 0.0 0.00 0.00 0.00 82 1063.5
20260507204516 50 67 5.0 0.0 0.00 0.00 0.00 82 1063.5
20260507204401 50 45 6.0 0.0 0.00 0.00 0.00 82 1063.5
20260507204247 50 67 1.0 0.0 0.00 0.00 0.00 82 1063.5
20260507204133 50 45 6.0 0.0 0.00 0.00 0.00 83 1063.5
20260507204011 50 67 5.0 0.0 0.00 0.00 0.00 83 1063.5
20260507203857 50 90 3.0 0.0 0.00 0.00 0.00 83 1063.5
20260507203751 50 90 3.0 0.0 0.00 0.00 0.00 83 1063.5
20260507203638 50 90 8.0 0.0 0.00 0.00 0.00 83 1063.5
20260507203530 50 67 5.0 0.0 0.00 0.00 0.00 83 1063.5
20260507203408 50 90 7.0 0.0 0.00 0.00 0.00 83 1063.5
20260507203254 50 90 3.0 0.0 0.00 0.00 0.00 83 1063.5
20260507203149 50 90 4.0 0.0 0.00 0.00 0.00 83 1063.5
20260507203041 50 90 9.0 0.0 0.00 0.00 0.00 83 1063.5
20260507202920 50 90 5.0 0.0 0.00 0.00 0.00 83 1063.5
20260507202805 50 112 5.0 0.0 0.00 0.00 0.00 83 1063.6
20260507202651 50 112 8.0 0.0 0.00 0.00 0.00 83 1063.5
20260507202545 50 67 4.0 0.0 0.00 0.00 0.00 83 1063.5
20260507202424 50 67 0.0 0.0 0.00 0.00 0.00 83 1063.5
20260507202308 50 90 4.0 0.0 0.00 0.00 0.00 83 1063.6
20260507202154 50 90 0.0 0.0 0.00 0.00 0.00 83 1063.5
20260507202049 50 67 0.0 0.0 0.00 0.00 0.00 83 1063.6
20260507201942 50 45 0.0 0.0 0.00 0.00 0.00 83 1063.6
20260507201837 50 90 6.0 0.0 0.00 0.00 0.00 83 1063.6
20260507201730 50 90 7.0 0.0 0.00 0.00 0.00 83 1063.6
20260507201624 50 90 4.0 0.0 0.00 0.00 0.00 83 1063.6
20260507201503 51 67 5.0 0.0 0.00 0.00 0.00 83 1063.6
20260507201347 51 90 3.0 0.0 0.00 0.00 0.00 83 1063.5
20260507201232 51 90 3.0 0.0 0.00 0.00 0.00 83 1063.5
20260507201120 51 67 6.0 0.0 0.00 0.00 0.00 83 1063.5
20260507201005 51 90 5.0 0.0 0.00 0.00 0.00 83 1063.4
20260507200858 51 45 6.0 0.0 0.00 0.00 0.00 83 1063.4
20260507200743 51 67 5.0 0.0 0.00 0.00 0.00 83 1063.4
20260507200630 51 67 2.0 0.0 0.00 0.00 0.00 83 1063.5
20260507200525 51 67 3.0 0.0 0.00 0.00 0.00 83 1063.4
20260507200417 51 90 5.0 0.0 0.00 0.00 0.00 84 1063.4
20260507200248 51 67 6.0 0.0 0.00 0.00 0.00 84 1063.4
20260507200134 51 90 9.0 0.0 0.00 0.00 0.00 84 1063.4
20260507195646 51 67 5.0 0.0 0.00 0.00 0.00 84 1063.3
20260507195540 51 45 7.0 0.0 0.00 0.00 0.00 84 1063.4
20260507195434 51 112 6.0 0.0 0.00 0.00 0.00 84 1063.4
20260507195325 51 90 3.0 0.0 0.00 0.00 0.00 84 1063.4
20260507195212 51 67 3.0 0.0 0.00 0.00 0.00 84 1063.4
20260507195106 51 67 4.0 0.0 0.00 0.00 0.00 84 1063.4
20260507195001 51 90 5.0 0.0 0.00 0.00 0.00 84 1063.3
20260507194852 51 67 3.0 0.0 0.00 0.00 0.00 84 1063.3
20260507194723 51 45 5.0 0.0 0.00 0.00 0.00 84 1063.3
20260507194608 51 22 2.0 0.0 0.00 0.00 0.00 84 1063.3
20260507194453 51 45 5.0 0.0 0.00 0.00 0.00 84 1063.3
20260507194340 51 67 8.0 0.0 0.00 0.00 0.00 84 1063.2
20260507194217 51 67 0.0 0.0 0.00 0.00 0.00 84 1063.3
20260507194104 51 45 3.0 0.0 0.00 0.00 0.00 84 1063.3
20260507193941 51 67 4.0 0.0 0.00 0.00 0.00 84 1063.2
20260507193827 51 90 0.0 0.0 0.00 0.00 0.00 84 1063.3
20260507193721 51 22 0.0 0.0 0.00 0.00 0.00 84 1063.2
20260507193615 51 90 6.0 0.0 0.00 0.00 0.00 84 1063.2
20260507193509 51 45 6.0 0.0 0.00 0.00 0.00 84 1063.1
20260507193403 51 90 2.0 0.0 0.00 0.00 0.00 84 1063.1
20260507193258 51 45 6.0 0.0 0.00 0.00 0.00 83 1063.1
20260507193151 51 45 5.0 0.0 0.00 0.00 0.00 83 1063.1
20260507193038 51 45 6.0 0.0 0.00 0.00 0.00 83 1063.1
20260507192933 51 90 0.0 0.0 0.00 0.00 0.00 83 1063.0
20260507192823 51 67 5.0 0.0 0.00 0.00 0.00 83 1062.9
20260507192705 51 45 5.0 0.0 0.00 0.00 0.00 83 1063.0
20260507192556 51 22 6.0 0.0 0.00 0.00 0.00 83 1062.9
20260507192442 51 45 5.0 0.0 0.00 0.00 0.00 83 1062.9
20260507192336 51 67 4.0 0.0 0.00 0.00 0.00 82 1062.9
20260507192221 51 45 0.0 0.0 0.00 0.00 0.00 82 1062.9
20260507192058 51 90 5.0 0.0 0.00 0.00 0.00 83 1062.9
20260507191945 51 45 6.0 0.0 0.00 0.00 0.00 82 1062.9
20260507191840 51 112 0.0 0.0 0.00 0.00 0.00 82 1062.9
20260507191733 51 45 2.0 0.0 0.00 0.00 0.00 82 1063.0
20260507191628 52 90 0.0 0.0 0.00 0.00 0.00 82 1063.0
20260507191523 52 90 0.0 0.0 0.00 0.00 0.00 82 1062.9
20260507191417 52 45 3.0 0.0 0.00 0.00 0.00 82 1063.0
20260507191312 52 22 5.0 0.0 0.00 0.00 0.00 82 1062.9
20260507191151 52 67 0.0 0.0 0.00 0.00 0.00 81 1062.9
20260507191029 52 67 4.0 0.0 0.00 0.00 0.00 81 1063.0
20260507190916 52 67 2.0 0.0 0.00 0.00 0.00 81 1063.0
20260507190805 52 45 0.0 0.0 0.00 0.00 0.00 81 1063.0
20260507190658 52 45 0.0 0.0 0.00 0.00 0.00 81 1063.0
20260507190545 52 67 0.0 0.0 0.00 0.00 0.00 81 1062.9
20260507190432 52 67 0.0 0.0 0.00 0.00 0.00 81 1062.9
20260507190327 52 67 0.0 0.0 0.00 0.00 0.00 81 1062.9
20260507190208 52 45 3.0 0.0 0.00 0.00 0.00 80 1062.9
20260507185958 53 67 3.0 0.0 0.00 0.00 0.00 80 1062.8
20260507185843 53 45 0.0 0.0 0.00 0.00 0.00 80 1062.7
20260507185729 53 67 1.0 0.0 0.00 0.00 0.00 80 1062.8
20260507185609 53 45 6.0 0.0 0.00 0.00 0.00 80 1062.9
20260507185505 53 90 5.0 0.0 0.00 0.00 0.00 80 1062.8
20260507185350 53 45 7.0 0.0 0.00 0.00 0.00 80 1062.9
20260507185237 53 67 4.0 0.0 0.00 0.00 0.00 80 1062.9
20260507185131 53 45 0.0 0.0 0.00 0.00 0.00 80 1062.9
20260507185012 53 67 0.0 0.0 0.00 0.00 0.00 80 1062.9
20260507184858 53 67 0.0 0.0 0.00 0.00 0.00 80 1062.8
20260507184745 53 67 6.0 0.0 0.00 0.00 0.00 80 1062.9
20260507184631 52 90 0.0 0.0 0.00 0.00 0.00 80 1062.8
20260507184510 52 67 0.0 0.0 0.00 0.00 0.00 80 1062.8
20260507184356 52 45 0.0 0.0 0.00 0.00 0.00 80 1062.8
20260507184238 52 67 0.0 0.0 0.00 0.00 0.00 80 1062.8
20260507184131 52 90 6.0 0.0 0.00 0.00 0.00 80 1062.8
20260507184009 52 67 0.0 0.0 0.00 0.00 0.00 80 1062.8
20260507183855 53 90 7.0 0.0 0.00 0.00 0.00 80 1062.9
20260507183745 53 45 5.0 0.0 0.00 0.00 0.00 80 1062.8
20260507183640 53 45 7.0 0.0 0.00 0.00 0.00 80 1062.9
20260507183534 53 90 0.0 0.0 0.00 0.00 0.00 80 1062.8
20260507183423 53 45 0.0 0.0 0.00 0.00 0.00 80 1062.8
20260507183315 53 90 3.0 0.0 0.00 0.00 0.00 80 1062.8
20260507183154 53 112 5.0 0.0 0.00 0.00 0.00 80 1062.8
20260507183043 53 45 5.0 0.0 0.00 0.00 0.00 79 1062.8
20260507182938 53 45 6.0 0.0 0.00 0.00 0.00 79 1062.7
20260507182823 53 112 3.0 0.0 0.00 0.00 0.00 79 1062.7
20260507182712 53 90 4.0 0.0 0.00 0.00 0.00 79 1062.8
20260507182603 53 45 4.0 0.0 0.00 0.00 0.00 79 1062.8
20260507182446 53 22 6.0 0.0 0.00 0.00 0.00 79 1062.7
20260507182339 53 67 7.0 0.0 0.00 0.00 0.00 79 1062.7
20260507182227 53 45 8.0 0.0 0.00 0.00 0.00 78 1062.7
20260507182120 53 67 7.0 0.0 0.00 0.00 0.00 78 1062.7
20260507182007 53 67 4.0 0.0 0.00 0.00 0.00 78 1062.6
20260507181846 53 22 0.0 0.0 0.00 0.00 0.00 78 1062.6
20260507181734 53 22 5.0 0.0 0.00 0.00 0.00 78 1062.7
20260507181630 53 67 7.0 0.0 0.00 0.00 0.00 79 1062.7
20260507181522 53 90 0.0 0.0 0.00 0.00 0.00 78 1062.7
20260507181410 53 22 3.0 0.0 0.00 0.00 0.00 78 1062.8
20260507181304 53 45 4.0 0.0 0.00 0.00 0.00 78 1062.7
20260507181137 53 45 6.0 0.0 0.00 0.00 0.00 78 1062.7
20260507181031 53 90 0.0 0.0 0.00 0.00 0.00 78 1062.7
20260507180918 53 22 5.0 0.0 0.00 0.00 0.00 78 1062.8
20260507180812 53 22 6.0 0.0 0.00 0.00 0.00 78 1062.7
20260507180658 53 67 4.0 0.0 0.00 0.00 0.00 78 1062.8
20260507180537 53 45 7.0 0.0 0.00 0.00 0.00 78 1062.7
20260507180416 53 45 8.0 0.0 0.00 0.00 0.00 78 1062.7
20260507180258 53 112 5.0 0.0 0.00 0.00 0.00 78 1062.7
20260507180149 53 67 10.0 0.0 0.00 0.00 0.00 78 1062.8
20260507180036 53 45 5.0 0.0 0.00 0.00 0.00 78 1062.7
20260507175931 53 112 3.0 0.0 0.00 0.00 0.00 78 1062.8
20260507175826 53 45 3.0 0.0 0.00 0.00 0.00 78 1062.9
20260507175714 53 45 10.0 0.0 0.00 0.00 0.00 78 1062.8
20260507175559 53 112 6.0 0.0 0.00 0.00 0.00 78 1062.7
20260507175438 53 0 0.0 0.0 0.00 0.00 0.00 78 1062.8
20260507175325 53 45 3.0 0.0 0.00 0.00 0.00 78 1062.8
20260507175214 53 22 4.0 0.0 0.00 0.00 0.00 77 1062.8
20260507175106 54 45 7.0 0.0 0.00 0.00 0.00 77 1062.7
20260507174945 54 45 6.0 0.0 0.00 0.00 0.00 77 1062.6
20260507174838 54 45 0.0 0.0 0.00 0.00 0.00 76 1062.7
20260507174731 54 22 6.0 0.0 0.00 0.00 0.00 76 1062.7
20260507174617 54 22 4.0 0.0 0.00 0.00 0.00 76 1062.7
20260507174456 54 45 0.0 0.0 0.00 0.00 0.00 76 1062.6
20260507174344 54 45 6.0 0.0 0.00 0.00 0.00 76 1062.8
20260507174228 54 67 9.0 0.0 0.00 0.00 0.00 76 1062.7
20260507174108 54 67 7.0 0.0 0.00 0.00 0.00 76 1062.6
20260507173955 54 45 6.0 0.0 0.00 0.00 0.00 76 1062.7
20260507173841 54 22 5.0 0.0 0.00 0.00 0.00 76 1062.7
20260507173730 54 45 0.0 0.0 0.00 0.00 0.00 77 1062.6
20260507173617 54 45 0.0 0.0 0.00 0.00 0.00 77 1062.6
20260507173511 54 45 6.0 0.0 0.00 0.00 0.00 76 1062.5
20260507173358 54 67 0.0 0.0 0.00 0.00 0.00 76 1062.6
20260507173252 54 22 5.0 0.0 0.00 0.00 0.00 76 1062.5
20260507173138 54 22 5.0 0.0 0.00 0.00 0.00 76 1062.5
20260507173017 54 45 4.0 0.0 0.00 0.00 0.00 76 1062.5
20260507172856 54 67 4.0 0.0 0.00 0.00 0.00 76 1062.5
20260507172743 54 67 7.0 0.0 0.00 0.00 0.00 76 1062.5
20260507172622 54 0 7.0 0.0 0.00 0.00 0.00 75 1062.5
20260507172453 55 67 5.0 0.0 0.00 0.00 0.00 75 1062.5
20260507172340 55 45 6.0 0.0 0.00 0.00 0.00 75 1062.5
20260507172235 55 67 7.0 0.0 0.00 0.00 0.00 75 1062.5
20260507172123 55 22 5.0 0.0 0.00 0.00 0.00 75 1062.5
20260507172017 55 22 6.0 0.0 0.00 0.00 0.00 75 1062.5
20260507171855 55 45 4.0 0.0 0.00 0.00 0.00 75 1062.5
20260507171734 55 22 5.0 0.0 0.00 0.00 0.00 74 1062.5
20260507171621 55 22 0.0 0.0 0.00 0.00 0.00 74 1062.5
20260507171459 55 22 2.0 0.0 0.00 0.00 0.00 74 1062.5
20260507171346 55 45 0.0 0.0 0.00 0.00 0.00 74 1062.3
20260507171235 55 22 3.0 0.0 0.00 0.00 0.00 73 1062.3
20260507171128 55 67 8.0 0.0 0.00 0.00 0.00 73 1062.3
20260507171000 55 45 6.0 0.0 0.00 0.00 0.00 73 1062.4
20260507170846 55 45 8.0 0.0 0.00 0.00 0.00 72 1062.4
20260507170724 55 45 0.0 0.0 0.00 0.00 0.00 72 1062.4
20260507170603 55 45 7.0 0.0 0.00 0.00 0.00 72 1062.3
20260507170444 55 45 6.0 0.0 0.00 0.00 0.00 72 1062.3
20260507170329 55 45 8.0 0.0 0.00 0.00 0.00 72 1062.3
20260507170208 56 0 4.0 0.0 0.00 0.00 0.00 72 1062.3
20260507165948 56 337 4.0 0.0 0.00 0.00 0.00 72 1062.3
20260507165828 56 0 6.0 0.0 0.00 0.00 0.00 72 1062.2
20260507165715 56 0 4.0 0.0 0.00 0.00 0.00 72 1062.3
20260507165609 56 22 4.0 0.0 0.00 0.00 0.00 71 1062.3
20260507165503 56 22 5.0 0.0 0.00 0.00 0.00 71 1062.1
20260507165350 56 22 7.0 0.0 0.00 0.00 0.00 71 1062.2
20260507165245 56 22 7.0 0.0 0.00 0.00 0.00 71 1062.2
20260507165139 56 0 6.0 0.0 0.00 0.00 0.00 71 1062.1
20260507165034 56 22 4.0 0.0 0.00 0.00 0.00 71 1062.1
20260507164928 56 22 9.0 0.0 0.00 0.00 0.00 71 1062.2
20260507164823 56 0 4.0 0.0 0.00 0.00 0.00 71 1062.2
20260507164717 56 22 7.0 0.0 0.00 0.00 0.00 71 1062.3
20260507164610 56 0 11.0 0.0 0.00 0.00 0.00 70 1062.1
20260507164450 56 22 9.0 0.0 0.00 0.00 0.00 70 1062.2
20260507164345 56 0 5.0 0.0 0.00 0.00 0.00 70 1062.3
20260507164241 56 45 7.0 0.0 0.00 0.00 0.00 70 1062.3
20260507164135 56 22 4.0 0.0 0.00 0.00 0.00 70 1062.2
20260507164028 56 22 6.0 0.0 0.00 0.00 0.00 70 1062.1
20260507163907 56 45 10.0 0.0 0.00 0.00 0.00 70 1062.3
20260507163738 56 22 3.0 0.0 0.00 0.00 0.00 70 1062.3
20260507163625 56 22 3.0 0.0 0.00 0.00 0.00 70 1062.3
20260507163512 56 22 9.0 0.0 0.00 0.00 0.00 70 1062.2
20260507163401 56 0 5.0 0.0 0.00 0.00 0.00 70 1062.2
20260507163246 56 0 6.0 0.0 0.00 0.00 0.00 69 1062.2
20260507163126 56 0 3.0 0.0 0.00 0.00 0.00 69 1062.2
20260507163011 57 0 3.0 0.0 0.00 0.00 0.00 68 1062.3
20260507162851 57 45 4.0 0.0 0.00 0.00 0.00 68 1062.2
20260507162746 57 45 4.0 0.0 0.00 0.00 0.00 69 1062.3
20260507162640 57 0 3.0 0.0 0.00 0.00 0.00 68 1062.3
20260507162519 57 22 0.0 0.0 0.00 0.00 0.00 67 1062.2
20260507162406 57 22 5.0 0.0 0.00 0.00 0.00 67 1062.2
20260507162253 57 45 9.0 0.0 0.00 0.00 0.00 67 1062.2
20260507162149 57 22 7.0 0.0 0.00 0.00 0.00 67 1062.2
20260507162044 58 45 6.0 0.0 0.00 0.00 0.00 67 1062.3
20260507161929 58 0 4.0 0.0 0.00 0.00 0.00 67 1062.2
20260507161810 58 0 0.0 0.0 0.00 0.00 0.00 67 1062.2
20260507161704 58 45 4.0 0.0 0.00 0.00 0.00 67 1062.2
20260507161601 58 0 0.0 0.0 0.00 0.00 0.00 66 1062.2
20260507161453 58 45 8.0 0.0 0.00 0.00 0.00 66 1062.2
20260507161340 58 45 6.0 0.0 0.00 0.00 0.00 66 1062.2
20260507161235 58 45 4.0 0.0 0.00 0.00 0.00 66 1062.2
20260507161124 58 45 5.0 0.0 0.00 0.00 0.00 66 1062.2
20260507161020 58 0 5.0 0.0 0.00 0.00 0.00 66 1062.2
20260507160858 59 0 6.0 0.0 0.00 0.00 0.00 66 1062.2
20260507160750 59 337 5.0 0.0 0.00 0.00 0.00 65 1062.3
20260507160630 59 0 7.0 0.0 0.00 0.00 0.00 64 1062.2
20260507160516 60 22 5.0 0.0 0.00 0.00 0.00 63 1062.2
20260507160355 60 45 12.0 0.0 0.00 0.00 0.00 63 1062.3
20260507160250 60 0 13.0 0.0 0.00 0.00 0.00 64 1062.2
20260507160129 60 22 6.0 0.0 0.00 0.00 0.00 64 1062.2
20260507160015 60 0 0.0 0.0 0.00 0.00 0.00 64 1062.2
20260507155902 60 22 0.0 0.0 0.00 0.00 0.00 64 1062.2
20260507155749 60 0 5.0 0.0 0.00 0.00 0.00 64 1062.2
20260507155636 60 45 6.0 0.0 0.00 0.00 0.00 64 1062.3
20260507155523 60 22 3.0 0.0 0.00 0.00 0.00 64 1062.3
20260507155401 60 22 6.0 0.0 0.00 0.00 0.00 63 1062.2
20260507155241 60 45 3.0 0.0 0.00 0.00 0.00 62 1062.3
20260507155138 60 22 4.0 0.0 0.00 0.00 0.00 64 1062.1
20260507155030 60 45 6.0 0.0 0.00 0.00 0.00 64 1062.3
20260507154909 60 45 4.0 0.0 0.00 0.00 0.00 63 1062.3
20260507154748 60 45 8.0 0.0 0.00 0.00 0.00 64 1062.2
20260507154634 60 0 5.0 0.0 0.00 0.00 0.00 64 1062.3
20260507154514 60 22 5.0 0.0 0.00 0.00 0.00 65 1062.2
20260507154408 60 22 3.0 0.0 0.00 0.00 0.00 64 1062.2
20260507154247 60 45 8.0 0.0 0.00 0.00 0.00 64 1062.2
20260507154119 60 315 3.0 0.0 0.00 0.00 0.00 64 1062.2
20260507154013 60 22 7.0 0.0 0.00 0.00 0.00 63 1062.2
20260507153908 60 22 5.0 0.0 0.00 0.00 0.00 63 1062.1
20260507153755 60 22 6.0 0.0 0.00 0.00 0.00 63 1062.1
20260507153650 60 45 6.0 0.0 0.00 0.00 0.00 63 1062.1
20260507153537 60 22 7.0 0.0 0.00 0.00 0.00 63 1062.3
20260507153420 60 22 8.0 0.0 0.00 0.00 0.00 63 1062.2
20260507153303 60 0 6.0 0.0 0.00 0.00 0.00 63 1062.2
20260507153157 60 45 7.0 0.0 0.00 0.00 0.00 63 1062.3
20260507153036 60 22 0.0 0.0 0.00 0.00 0.00 63 1062.2
20260507152923 60 22 11.0 0.0 0.00 0.00 0.00 63 1062.2
20260507152803 60 337 15.0 0.0 0.00 0.00 0.00 64 1062.3
20260507152640 60 22 4.0 0.0 0.00 0.00 0.00 64 1062.3
20260507152527 60 22 0.0 0.0 0.00 0.00 0.00 63 1062.2
20260507152423 60 67 9.0 0.0 0.00 0.00 0.00 63 1062.3
20260507152317 60 45 12.0 0.0 0.00 0.00 0.00 63 1062.2
20260507152156 60 22 3.0 0.0 0.00 0.00 0.00 63 1062.2
20260507152052 60 45 0.0 0.0 0.00 0.00 0.00 63 1062.2
20260507151946 60 22 6.0 0.0 0.00 0.00 0.00 63 1062.2
20260507151825 60 0 6.0 0.0 0.00 0.00 0.00 63 1062.2
20260507151720 60 22 3.0 0.0 0.00 0.00 0.00 63 1062.2
20260507151606 60 22 6.0 0.0 0.00 0.00 0.00 63 1062.1
20260507151453 60 22 7.0 0.0 0.00 0.00 0.00 63 1062.2
20260507151333 60 22 1.0 0.0 0.00 0.00 0.00 63 1062.2
20260507151227 60 22 6.0 0.0 0.00 0.00 0.00 63 1062.2
20260507151123 60 45 9.0 0.0 0.00 0.00 0.00 63 1062.3
20260507151018 61 22 7.0 0.0 0.00 0.00 0.00 62 1062.2
20260507150906 61 22 6.0 0.0 0.00 0.00 0.00 63 1062.2
20260507150758 61 22 5.0 0.0 0.00 0.00 0.00 63 1062.2
20260507150638 61 45 0.0 0.0 0.00 0.00 0.00 62 1062.2
20260507150525 61 67 10.0 0.0 0.00 0.00 0.00 63 1062.2
20260507150420 61 22 7.0 0.0 0.00 0.00 0.00 63 1062.0
20260507150309 60 0 7.0 0.0 0.00 0.00 0.00 63 1062.1
20260507150202 60 0 7.0 0.0 0.00 0.00 0.00 63 1062.1
20260507150040 60 45 6.0 0.0 0.00 0.00 0.00 61 1062.1
20260507145927 60 22 9.0 0.0 0.00 0.00 0.00 62 1062.2
20260507145758 60 0 7.0 0.0 0.00 0.00 0.00 63 1062.0
20260507145644 60 22 7.0 0.0 0.00 0.00 0.00 63 1062.1
20260507145534 60 22 6.0 0.0 0.00 0.00 0.00 63 1062.1
20260507145420 60 90 9.0 0.0 0.00 0.00 0.00 62 1062.1
20260507145314 61 45 12.0 0.0 0.00 0.00 0.00 61 1062.1
20260507145209 61 22 3.0 0.0 0.00 0.00 0.00 62 1062.1
20260507145055 61 22 8.0 0.0 0.00 0.00 0.00 62 1062.1
20260507144942 61 22 8.0 0.0 0.00 0.00 0.00 62 1062.0
20260507144837 61 0 5.0 0.0 0.00 0.00 0.00 63 1062.1
20260507144724 60 22 6.0 0.0 0.00 0.00 0.00 63 1062.0
20260507144603 61 0 5.0 0.0 0.00 0.00 0.00 62 1062.0
20260507144452 60 90 9.0 0.0 0.00 0.00 0.00 64 1062.1
20260507144345 60 22 9.0 0.0 0.00 0.00 0.00 64 1062.0
20260507144240 60 45 7.0 0.0 0.00 0.00 0.00 64 1062.0
20260507144119 60 67 6.0 0.0 0.00 0.00 0.00 64 1062.0
20260507144008 60 337 6.0 0.0 0.00 0.00 0.00 63 1062.0
20260507143902 60 0 8.0 0.0 0.00 0.00 0.00 63 1062.0
20260507143755 60 22 6.0 0.0 0.00 0.00 0.00 64 1062.1
20260507143643 60 0 6.0 0.0 0.00 0.00 0.00 63 1062.1
20260507143537 60 0 6.0 0.0 0.00 0.00 0.00 62 1062.1
20260507143432 60 0 7.0 0.0 0.00 0.00 0.00 62 1062.1
20260507143319 61 22 6.0 0.0 0.00 0.00 0.00 62 1062.1
20260507143158 60 0 9.0 0.0 0.00 0.00 0.00 62 1062.1
20260507143045 60 22 4.0 0.0 0.00 0.00 0.00 63 1062.0
20260507142941 60 22 6.0 0.0 0.00 0.00 0.00 63 1062.0
20260507142835 60 22 6.0 0.0 0.00 0.00 0.00 63 1062.2
20260507142729 60 0 6.0 0.0 0.00 0.00 0.00 63 1062.1
20260507142616 60 0 9.0 0.0 0.00 0.00 0.00 63 1062.1
20260507142455 60 45 6.0 0.0 0.00 0.00 0.00 63 1062.2
20260507142341 60 22 0.0 0.0 0.00 0.00 0.00 63 1062.2
20260507142221 60 22 7.0 0.0 0.00 0.00 0.00 63 1062.2
20260507142108 60 22 15.0 0.0 0.00 0.00 0.00 64 1062.1
20260507141955 60 45 9.0 0.0 0.00 0.00 0.00 63 1062.1
20260507141850 60 337 7.0 0.0 0.00 0.00 0.00 63 1062.1
20260507141739 60 22 6.0 0.0 0.00 0.00 0.00 64 1062.1
20260507141631 60 22 7.0 0.0 0.00 0.00 0.00 65 1062.1
20260507141512 60 45 6.0 0.0 0.00 0.00 0.00 64 1062.2
20260507141406 60 0 7.0 0.0 0.00 0.00 0.00 65 1062.1
20260507141302 60 0 5.0 0.0 0.00 0.00 0.00 65 1062.2
20260507141155 60 22 12.0 0.0 0.00 0.00 0.00 65 1062.1
20260507141049 59 22 7.0 0.0 0.00 0.00 0.00 65 1062.1
20260507140935 59 22 8.0 0.0 0.00 0.00 0.00 65 1062.1
20260507140830 59 45 4.0 0.0 0.00 0.00 0.00 66 1062.1
20260507140718 59 45 11.0 0.0 0.00 0.00 0.00 67 1062.1
20260507140603 59 22 7.0 0.0 0.00 0.00 0.00 66 1062.1
20260507140450 59 0 6.0 0.0 0.00 0.00 0.00 66 1062.2
20260507140337 58 0 6.0 0.0 0.00 0.00 0.00 66 1062.2
20260507140233 59 67 8.0 0.0 0.00 0.00 0.00 66 1062.2
20260507140127 58 45 12.0 0.0 0.00 0.00 0.00 68 1062.2
20260507140014 58 45 12.0 0.0 0.00 0.00 0.00 68 1062.2
20260507135901 58 45 6.0 0.0 0.00 0.00 0.00 68 1062.2
20260507135750 58 22 0.0 0.0 0.00 0.00 0.00 69 1062.2
20260507135645 58 22 0.0 0.0 0.00 0.00 0.00 68 1062.1
20260507135538 57 45 8.0 0.0 0.00 0.00 0.00 69 1062.2
20260507135425 57 22 5.0 0.0 0.00 0.00 0.00 69 1062.2
20260507135320 57 0 7.0 0.0 0.00 0.00 0.00 68 1062.1
20260507135215 57 337 3.0 0.0 0.00 0.00 0.00 68 1062.2
20260507135102 57 0 10.0 0.0 0.00 0.00 0.00 67 1062.2
20260507134949 57 0 5.0 0.0 0.00 0.00 0.00 67 1062.2
20260507134836 57 0 5.0 0.0 0.00 0.00 0.00 67 1062.2
20260507134733 57 0 6.0 0.0 0.00 0.00 0.00 67 1062.2
20260507134625 57 45 5.0 0.0 0.00 0.00 0.00 67 1062.1
20260507134512 57 0 18.0 0.0 0.00 0.00 0.00 67 1062.1
20260507134407 57 67 7.0 0.0 0.00 0.00 0.00 67 1062.0
20260507134256 57 45 11.0 0.0 0.00 0.00 0.00 67 1062.1
20260507134149 57 0 10.0 0.0 0.00 0.00 0.00 67 1062.1
20260507134028 57 45 7.0 0.0 0.00 0.00 0.00 66 1062.1
20260507133915 57 0 0.0 0.0 0.00 0.00 0.00 67 1062.1
20260507133801 57 337 7.0 0.0 0.00 0.00 0.00 67 1062.1
20260507133649 57 45 5.0 0.0 0.00 0.00 0.00 67 1062.1
20260507133536 57 22 9.0 0.0 0.00 0.00 0.00 67 1062.1
20260507133423 57 45 6.0 0.0 0.00 0.00 0.00 66 1062.1
20260507133317 57 22 6.0 0.0 0.00 0.00 0.00 66 1062.1
20260507133156 57 45 10.0 0.0 0.00 0.00 0.00 67 1062.1
20260507133043 57 22 6.0 0.0 0.00 0.00 0.00 66 1062.1
20260507132929 57 45 4.0 0.0 0.00 0.00 0.00 67 1062.0
20260507132808 57 45 11.0 0.0 0.00 0.00 0.00 67 1062.0
20260507132655 57 0 0.0 0.0 0.00 0.00 0.00 66 1062.0
20260507132542 57 0 0.0 0.0 0.00 0.00 0.00 67 1061.9
20260507132429 57 22 0.0 0.0 0.00 0.00 0.00 66 1062.0
20260507132309 57 22 9.0 0.0 0.00 0.00 0.00 67 1062.0
20260507132205 57 45 7.0 0.0 0.00 0.00 0.00 66 1062.0
20260507132058 57 0 6.0 0.0 0.00 0.00 0.00 66 1062.0
20260507131945 57 22 14.0 0.0 0.00 0.00 0.00 67 1062.0
20260507131840 57 112 6.0 0.0 0.00 0.00 0.00 67 1062.0
20260507131727 57 0 6.0 0.0 0.00 0.00 0.00 66 1062.0
20260507131615 57 45 8.0 0.0 0.00 0.00 0.00 66 1062.0
20260507131509 57 22 8.0 0.0 0.00 0.00 0.00 66 1061.9
20260507131355 57 22 4.0 0.0 0.00 0.00 0.00 66 1062.0
20260507131242 57 0 7.0 0.0 0.00 0.00 0.00 66 1062.0
20260507131137 58 0 6.0 0.0 0.00 0.00 0.00 66 1062.0
20260507131008 58 45 9.0 0.0 0.00 0.00 0.00 65 1062.0
20260507130855 58 337 6.0 0.0 0.00 0.00 0.00 65 1062.0
20260507130750 58 22 11.0 0.0 0.00 0.00 0.00 65 1062.0
20260507130636 58 22 7.0 0.0 0.00 0.00 0.00 66 1062.1
20260507130523 58 315 3.0 0.0 0.00 0.00 0.00 66 1062.0
20260507130410 58 0 6.0 0.0 0.00 0.00 0.00 66 1062.0
20260507130248 58 22 0.0 0.0 0.00 0.00 0.00 66 1062.0
20260507130129 58 45 9.0 0.0 0.00 0.00 0.00 66 1061.9
20260507130018 58 45 10.0 0.0 0.00 0.00 0.00 66 1061.9
20260507125909 58 45 0.0 0.0 0.00 0.00 0.00 66 1061.9
20260507125805 58 45 6.0 0.0 0.00 0.00 0.00 66 1061.9
20260507125659 58 67 9.0 0.0 0.00 0.00 0.00 66 1061.9
20260507125546 58 0 1.0 0.0 0.00 0.00 0.00 66 1061.9
20260507125433 57 67 11.0 0.0 0.00 0.00 0.00 65 1061.8
20260507125320 58 22 5.0 0.0 0.00 0.00 0.00 64 1061.8
20260507125215 58 22 6.0 0.0 0.00 0.00 0.00 64 1061.9
20260507125101 58 22 7.0 0.0 0.00 0.00 0.00 65 1061.8
20260507124948 58 45 0.0 0.0 0.00 0.00 0.00 65 1061.9